GFSFLT1_850_spd_000.txt.gz
Wind_Speed
9 12 12 12 19 20 17 15 12 9 7 8 10 7 3 4 9 7 10 13 16 20 22 21 24 26 25 22 22 22 24 25
8 7 6 7 8 12 12 11 6 3 4 13 6 4 9 10 9 14 16 18 21 19 22 23 25 21 21 20 20 21 24 27
18 16 13 11 12 12 14 11 11 7 7 1 5 8 8 9 13 15 17 18 18 19 20 20 17 17 20 22 24 23 26 28
20 19 17 17 17 16 16 14 12 10 9 7 9 9 9 12 15 16 18 19 17 18 17 15 20 29 31 31 28 27 27 25
22 19 19 17 17 14 11 10 7 4 5 7 10 11 11 13 15 17 17 16 16 17 20 29 35 35 30 22 25 27 27 26
22 18 15 15 14 11 8 6 4 5 8 9 13 14 13 14 15 16 15 19 25 28 29 30 27 23 24 23 25 26 25 21
20 16 12 9 9 7 4 1 4 7 9 10 11 11 11 12 14 16 21 23 23 28 26 25 24 19 18 20 23 23 21 19
19 16 12 9 7 3 2 1 3 3 6 8 7 9 12 14 15 18 22 23 24 24 23 22 14 12 11 14 19 22 19 17
15 14 12 9 8 7 3 1 5 8 7 7 9 12 16 19 21 24 27 27 26 24 22 20 22 23 27 14 14 18 16 17
17 15 13 11 8 4 2 7 9 7 9 11 15 20 23 25 28 31 32 31 26 21 16 17 21 22 8 12 16 15 15 15
19 16 13 9 4 3 8 9 9 9 12 17 22 26 28 30 33 33 31 27 19 16 13 21 19 22 15 11 12 14 16 17
19 14 10 5 1 4 11 7 6 11 17 21 24 26 30 30 32 32 29 19 15 18 22 25 16 15 9 11 14 16 19 20
15 10 6 4 2 3 4 4 10 15 20 22 23 26 29 31 32 29 24 16 15 16 18 23 19 9 9 13 17 18 22 23
12 9 8 6 2 1 5 9 13 16 20 21 23 27 30 31 31 28 22 13 13 20 21 14 6 8 13 15 19 22 24 25
11 11 11 6 2 13 8 11 14 17 19 20 22 26 30 32 30 26 21 17 18 13 11 9 9 13 15 19 23 24 24 25
12 11 9 6 12 7 10 13 15 17 19 20 22 27 31 30 28 26 20 16 13 12 10 10 13 17 17 21 23 24 26 31
13 12 9 11 10 10 13 14 16 19 21 22 22 28 28 28 29 23 14 10 12 12 11 13 18 19 19 20 24 27 30 33
15 14 9 10 13 12 13 16 18 21 23 20 24 27 26 29 24 18 13 11 13 15 16 19 20 15 20 24 25 29 30 28
15 13 12 14 13 13 15 18 21 23 21 22 25 23 27 28 22 16 15 14 17 17 17 14 12 20 23 24 28 27 26 26

GFSFLT1_850_spd_003.txt.gz
Wind_Speed
10 12 10 11 17 17 15 12 9 13 10 8 7 2 2 6 7 6 10 13 14 19 18 17 20 19 18 19 20 22 23 24
10 10 9 9 9 9 7 7 8 3 4 4 4 5 8 11 8 11 13 16 18 21 18 18 18 17 18 18 21 24 27 28
15 15 17 14 14 11 12 13 10 8 7 3 6 5 2 6 11 14 16 17 19 19 18 17 18 22 25 28 28 26 23 25
26 24 24 25 23 20 17 14 12 9 8 5 1 4 6 10 13 15 16 18 17 17 18 21 25 28 28 24 20 17 16 21
27 28 29 28 24 21 19 18 14 10 5 2 4 6 8 11 13 14 15 16 18 20 23 27 27 25 20 19 18 17 18 14
27 27 26 26 24 20 17 12 8 5 4 4 5 6 7 8 9 11 15 19 21 25 27 27 24 21 18 17 15 15 18 20
25 24 25 23 20 17 14 10 9 6 4 4 6 7 9 12 15 18 20 23 26 27 28 25 24 23 21 19 18 21 20 21
22 22 21 20 18 15 12 9 5 2 3 7 9 11 13 16 20 23 25 28 29 28 24 22 20 19 15 14 13 12 16 13
20 18 18 18 18 15 12 7 2 3 6 9 9 11 16 20 24 26 27 27 27 25 22 18 17 15 15 22 15 16 12 13
19 17 18 19 17 13 7 1 5 3 5 8 13 18 23 26 28 29 29 27 25 21 16 14 17 15 24 15 11 10 13 15
20 21 20 17 13 10 5 2 4 7 8 13 18 22 26 28 29 29 29 27 22 16 13 12 15 24 17 8 8 10 14 17
25 22 18 14 11 6 3 9 8 7 11 16 19 23 26 26 28 27 25 21 15 12 12 15 19 21 11 10 9 12 15 19
23 19 16 13 8 3 5 6 8 10 13 17 19 22 22 26 27 26 23 20 13 10 13 19 22 17 8 11 11 13 19 20
23 19 16 11 6 3 9 9 8 10 14 16 18 18 22 27 28 26 24 22 18 15 20 18 11 8 11 14 14 17 23 20
22 19 15 11 6 9 12 4 7 11 15 17 17 18 23 28 27 27 25 21 18 14 13 12 12 11 14 15 16 22 24 23
21 18 16 13 7 8 5 7 9 13 16 18 19 19 24 28 26 27 23 17 13 12 13 11 11 14 16 19 19 23 25 28
21 19 16 19 9 8 8 8 12 16 18 21 20 21 26 26 27 26 20 14 12 13 15 16 17 18 21 15 22 24 28 32
22 19 18 15 11 12 10 11 14 18 21 22 21 23 26 24 26 24 19 16 15 17 18 16 19 15 14 23 22 27 30 28
21 18 17 13 14 14 12 14 17 21 22 21 21 24 24 24 24 21 18 16 17 18 20 17 17 17 22 21 26 27 25 24

GFSFLT1_850_spd_006.txt.gz
Wind_Speed
13 13 15 17 18 17 15 10 4 8 10 7 4 1 2 4 4 3 4 7 9 11 13 16 14 9 10 11 15 15 16 16
13 15 15 18 19 17 12 8 6 5 6 6 5 2 5 8 5 6 9 11 12 13 9 11 12 12 14 16 16 18 20 18
13 14 16 18 17 15 13 10 8 9 7 5 4 4 5 5 8 11 13 15 14 12 15 14 14 16 17 16 16 18 18 16
16 17 18 18 18 16 14 14 13 10 9 5 5 3 4 3 5 6 11 15 16 17 17 18 19 18 18 16 14 13 13 14
19 20 19 18 17 16 17 16 13 13 11 8 6 1 2 7 8 8 11 16 21 23 20 24 23 20 18 14 12 12 10 15
19 19 20 19 21 19 19 19 17 14 10 4 2 1 4 6 8 13 15 17 18 19 21 20 20 19 16 12 10 8 11 14
20 19 19 18 17 21 20 17 15 11 6 4 3 8 10 10 13 15 16 18 19 19 19 20 19 16 13 9 7 10 13 15
22 21 20 18 18 19 16 14 11 8 3 3 8 11 11 10 14 14 19 18 19 19 20 18 14 13 9 8 8 18 11 12
21 21 19 18 19 17 16 13 8 4 1 5 8 8 10 11 16 19 16 17 18 20 18 12 8 7 7 11 13 13 12 11
22 20 19 19 19 18 15 12 6 3 3 8 6 9 15 18 19 19 18 18 18 17 14 7 7 7 13 12 14 12 10 12
21 19 18 19 19 19 15 9 6 4 7 4 6 10 15 19 21 20 20 20 18 15 11 9 10 11 14 17 13 11 11 13
22 20 19 20 19 18 12 9 3 3 3 3 6 11 17 20 18 19 19 20 16 13 11 13 14 18 19 16 11 13 13 15
23 22 22 21 21 18 12 7 5 7 4 4 9 15 18 16 15 17 18 18 16 13 12 15 18 20 16 10 12 14 17 19
23 23 23 22 21 17 9 9 8 5 4 7 12 14 15 12 15 17 17 16 15 13 13 14 14 12 11 12 14 15 16 17
24 24 24 22 20 14 13 10 6 6 7 9 10 14 13 14 16 16 17 16 14 12 12 13 12 11 11 12 12 13 14 17
27 26 24 23 21 17 11 10 8 8 9 9 10 15 14 13 15 17 19 16 13 13 11 11 11 11 15 16 20 14 17 18
26 25 24 23 22 16 14 11 9 9 11 12 14 15 16 15 15 17 17 15 14 14 15 13 11 10 19 18 14 17 16 18
26 26 24 22 22 17 14 12 11 11 12 15 18 18 16 15 16 16 17 15 14 15 16 13 13 9 16 16 19 19 20 16
24 22 21 21 20 16 14 14 13 13 15 18 17 14 15 16 16 16 16 15 15 14 13 12 10 12 16 18 18 22 18 15

GFSFLT1_850_spd_009.txt.gz
Wind_Speed
16 16 17 17 17 16 16 14 13 9 1 2 4 7 6 5 4 3 2 4 5 4 7 9 11 11 14 15 17 18 19 22
15 16 17 17 17 17 15 12 9 6 5 5 6 4 4 4 2 1 5 6 6 10 7 10 14 15 16 18 21 21 21 22
15 16 17 18 17 16 15 12 9 9 7 7 6 4 4 4 1 9 6 7 7 9 12 14 15 17 19 20 19 21 19 18
16 17 18 18 17 16 14 12 13 12 10 5 4 3 2 1 3 4 7 9 10 13 15 17 18 19 20 21 19 17 18 17
17 17 18 19 18 16 15 15 13 9 9 8 7 4 1 1 3 6 9 11 13 15 17 19 19 19 20 19 16 14 17 17
20 21 20 19 18 17 17 15 11 11 10 8 5 4 3 2 4 8 10 12 14 15 16 18 18 18 18 17 16 16 15 17
21 21 22 20 19 18 17 15 13 11 10 9 7 2 2 2 6 8 10 12 13 14 15 17 17 16 15 15 13 13 13 15
24 24 22 21 19 18 17 15 13 12 10 8 4 4 4 5 7 8 10 11 12 14 17 16 15 13 12 13 13 19 16 13
25 24 22 20 19 18 17 16 15 13 11 8 1 1 4 3 7 8 9 11 13 15 15 15 12 11 13 12 15 13 13 14
26 23 22 20 19 20 19 18 16 14 11 5 9 3 5 5 5 8 9 11 13 13 13 13 12 12 13 14 15 16 17 13
25 24 22 21 21 21 20 20 17 14 5 5 5 3 1 3 6 9 10 11 12 13 13 12 14 13 17 17 19 17 14 12
25 24 23 23 22 23 22 20 18 11 7 9 6 5 4 5 6 8 10 12 12 13 13 13 13 16 18 19 19 17 15 14
25 24 24 24 25 24 24 21 16 12 12 8 8 7 6 7 8 9 11 12 13 13 13 13 15 17 17 16 14 14 16 16
26 26 26 26 26 26 25 20 16 15 11 10 9 9 8 9 9 10 11 12 13 12 12 14 15 15 14 14 14 15 15 14
27 27 27 27 27 27 24 19 17 16 14 12 11 11 10 11 11 11 12 13 13 12 12 14 14 13 13 13 14 15 16 19
28 27 27 27 27 27 23 19 18 17 14 12 11 11 11 12 13 13 13 13 12 12 13 14 12 12 12 13 15 15 14 17
26 27 27 28 28 28 23 20 19 17 14 12 11 11 12 14 14 14 14 14 13 13 14 15 14 13 16 14 14 15 14 16
25 27 28 28 28 26 23 21 18 17 13 11 11 11 12 14 14 16 15 15 14 14 14 14 13 14 16 15 15 17 14 17
22 24 25 25 25 25 22 20 18 15 12 10 11 12 13 15 16 17 17 17 16 15 14 14 12 15 17 19 16 17 14 15

GFSFLT1_850_spd_012.txt.gz
Wind_Speed
19 19 19 19 20 19 20 20 17 16 4 4 8 9 10 9 7 5 9 5 6 5 4 11 13 11 12 14 20 18 20 20
18 19 20 21 20 20 17 17 15 12 8 9 11 11 8 5 3 3 2 4 7 11 5 9 10 12 15 19 19 18 18 22
19 19 22 22 22 20 18 16 10 10 12 15 14 12 12 4 6 7 7 9 8 6 12 14 14 17 17 16 19 22 20 16
19 20 20 21 24 23 18 17 13 15 17 15 15 9 3 9 8 2 3 9 9 8 10 13 16 17 17 19 20 18 16 14
21 20 21 23 22 20 19 18 21 19 12 14 13 12 16 11 6 6 7 7 11 13 14 16 18 18 19 17 15 19 20 14
24 23 24 24 22 22 21 23 18 16 17 17 16 11 9 6 7 7 7 11 11 12 13 17 18 17 15 16 15 17 17 16
22 25 22 24 24 23 25 21 17 17 20 20 19 16 12 8 6 7 11 9 12 12 16 17 16 13 12 13 17 16 16 19
25 27 28 29 27 27 25 20 20 19 20 19 17 11 4 5 6 10 11 10 11 13 17 15 14 9 14 16 18 20 22 20
22 25 25 24 25 24 22 23 20 19 19 17 11 6 6 8 10 11 9 10 11 14 14 13 10 13 15 18 15 14 14 15
24 26 25 26 24 24 25 24 22 21 19 16 10 6 7 9 8 8 8 11 11 11 14 10 9 16 16 17 17 15 19 17
23 25 25 25 24 24 25 24 25 22 21 15 11 8 7 7 7 8 10 11 12 11 12 12 12 11 13 15 17 17 18 18
25 26 26 24 25 25 27 26 26 25 24 15 11 8 10 8 7 9 10 12 11 12 12 13 13 12 14 17 18 19 18 17
27 27 26 27 25 26 26 27 26 26 20 16 14 14 10 9 8 9 11 13 11 13 14 13 12 14 16 17 15 15 16 15
27 28 29 26 25 26 27 28 27 23 17 20 16 15 12 10 11 11 12 11 14 13 13 12 13 14 18 12 12 13 15 13
25 27 29 27 25 27 27 26 26 20 22 18 16 15 12 10 12 14 13 13 14 13 13 13 15 15 13 12 12 12 14 14
24 25 25 26 26 26 27 27 26 24 21 17 15 15 14 14 12 15 15 15 17 13 14 15 17 19 14 15 15 17 18 15
15 17 18 22 23 27 27 27 25 25 21 19 15 12 11 10 15 20 17 16 14 15 15 16 17 15 17 20 17 17 15 15
14 14 18 20 23 26 28 28 25 23 21 18 14 12 10 19 15 15 15 17 18 18 17 16 18 18 21 20 16 16 18 14
10 13 17 21 22 23 26 24 24 20 18 15 14 11 12 11 15 16 17 18 18 19 19 18 17 19 18 19 18 21 19 15

GFSFLT1_850_spd_015.txt.gz
Wind_Speed
23 21 22 20 21 28 25 22 23 25 19 6 9 12 13 11 9 6 5 3 3 3 6 9 11 10 12 15 17 20 17 17
25 26 27 22 23 29 25 25 25 24 13 9 16 16 12 8 6 8 4 3 5 6 7 10 14 15 15 18 18 16 18 22
28 31 30 29 28 26 22 21 23 20 14 12 15 14 10 8 7 6 5 2 5 8 12 12 15 16 17 15 17 19 16 17
31 33 33 30 30 29 22 19 19 22 22 21 23 18 13 13 11 8 5 7 10 12 14 16 18 19 19 19 18 16 14 14
33 30 33 32 29 26 22 20 24 20 29 24 27 24 21 19 17 13 10 11 14 15 17 16 16 17 17 17 16 17 19 20
35 31 27 25 29 28 25 26 27 28 25 25 26 24 25 25 20 14 9 11 14 15 15 15 16 17 14 13 13 14 17 16
31 30 27 23 25 26 28 31 31 29 26 25 27 29 29 24 17 11 10 15 14 14 14 15 16 13 12 13 14 15 15 16
33 30 30 29 30 27 31 33 34 31 30 29 28 26 23 19 12 10 13 13 12 13 14 15 14 12 13 16 18 22 18 15
26 28 27 33 32 34 31 34 33 31 29 28 26 24 19 14 10 11 12 10 11 12 13 13 11 10 15 18 21 16 17 16
24 28 30 33 35 34 34 32 30 29 28 27 25 22 16 11 10 9 8 9 11 13 14 12 10 10 10 14 13 16 14 18
24 27 34 35 36 33 26 25 28 27 25 23 20 16 13 11 10 8 9 13 11 13 13 13 14 11 12 11 11 10 14 17
28 31 33 32 30 29 26 26 26 26 26 23 21 15 12 10 8 11 10 12 12 13 13 14 14 10 8 14 17 18 14 11
32 33 34 33 33 32 29 31 29 29 28 23 19 15 13 11 10 11 14 13 15 14 15 14 12 9 14 17 20 16 14 16
34 35 35 36 36 34 32 32 32 31 30 26 21 18 16 12 11 15 14 17 18 17 18 14 8 13 18 19 12 13 14 16
35 38 40 39 39 38 35 33 34 31 29 25 21 18 16 15 16 14 15 19 19 19 18 12 11 17 19 20 19 17 18 15
23 35 39 37 37 33 30 30 33 31 28 22 20 13 14 17 15 12 16 21 20 21 16 14 15 18 18 20 17 18 22 22
11 10 29 34 35 32 29 29 30 32 29 24 17 15 23 16 13 10 13 15 20 19 19 20 19 19 21 21 20 19 19 18
7 7 4 19 28 26 27 30 31 32 29 23 22 23 21 17 13 14 14 16 18 21 23 24 21 21 22 21 20 20 19 20
8 7 7 7 13 18 23 28 30 28 25 25 24 22 18 13 11 12 13 18 22 20 24 21 22 22 21 20 18 18 20 21

GFSFLT1_850_spd_018.txt.gz
Wind_Speed
35 34 30 24 26 32 37 33 31 29 28 23 13 12 13 12 11 11 11 9 6 4 6 11 15 17 18 18 19 20 19 17
35 35 30 25 30 37 38 34 32 31 30 20 13 13 14 14 13 12 10 8 5 4 10 15 17 17 18 18 19 18 17 19
41 38 35 32 30 34 32 30 30 31 28 16 13 17 16 13 13 12 11 8 4 9 12 15 17 16 17 17 18 18 17 14
44 45 42 36 33 31 30 30 32 29 23 18 19 18 18 18 18 17 14 10 7 11 14 16 16 16 16 17 18 17 14 16
45 43 42 39 35 29 29 31 32 31 26 25 25 25 25 22 21 17 15 8 8 12 15 14 13 15 15 14 13 13 13 12
46 47 44 42 37 33 28 28 28 32 31 29 30 28 26 25 23 18 13 10 11 14 13 12 14 15 15 13 11 11 12 12
41 43 43 42 35 31 33 30 28 31 33 30 35 34 32 31 26 19 16 15 15 12 11 11 13 13 13 12 11 13 16 18
42 41 40 40 35 33 34 31 32 31 29 31 33 37 34 30 23 19 17 13 10 10 11 11 13 14 12 13 14 18 18 14
41 36 36 37 33 34 37 35 34 34 33 31 29 30 27 23 19 17 14 11 9 8 12 14 13 12 12 12 14 17 16 19
38 38 35 32 35 38 35 31 37 35 33 29 27 27 25 22 20 16 11 7 9 14 13 14 14 13 13 14 12 13 15 15
36 36 36 35 36 35 31 30 33 36 30 27 25 26 24 21 16 11 8 10 10 11 13 14 14 13 13 12 14 16 17 18
35 34 34 32 33 33 33 36 36 34 33 30 28 27 25 21 17 14 13 8 12 13 14 15 16 14 13 11 14 18 22 20
34 31 31 31 33 37 40 40 38 37 36 33 30 27 25 23 19 16 10 9 11 12 15 16 15 14 13 13 16 20 16 17
36 34 35 37 39 41 42 42 41 38 34 32 30 28 26 25 20 17 11 11 10 14 16 16 12 11 13 16 19 23 18 19
35 36 39 41 43 45 46 43 40 34 32 32 32 30 27 23 20 16 14 11 9 13 16 17 14 11 15 20 22 20 19 20
29 28 34 42 45 47 45 42 36 33 33 35 34 29 23 19 17 17 17 8 8 11 18 16 18 17 18 21 22 22 20 19
6 3 6 28 41 42 42 38 35 36 36 36 32 26 21 24 25 24 15 10 2 11 16 18 20 24 23 21 22 23 21 20
11 10 7 5 14 30 34 34 34 36 36 33 29 28 29 31 28 23 17 12 16 14 21 23 21 24 25 24 22 21 19 19
7 6 7 7 7 13 23 27 33 35 33 31 31 30 32 29 22 13 7 17 12 20 26 25 24 22 22 22 21 21 25 22

GFSFLT1_850_spd_021.txt.gz
Wind_Speed
28 27 28 26 28 27 29 28 25 25 27 23 23 19 18 16 14 15 14 12 10 7 5 5 8 12 15 16 16 16 14 14
31 30 28 29 28 27 28 29 28 30 31 29 25 18 16 17 18 15 15 14 10 5 5 8 12 15 18 19 18 17 17 17
36 35 32 31 29 31 32 31 31 32 30 28 24 17 18 19 18 17 15 13 10 8 7 9 13 18 21 21 20 20 20 17
40 39 38 36 38 33 36 38 35 34 32 29 22 18 21 22 21 20 17 15 13 9 10 12 16 19 19 19 19 18 16 16
40 42 42 39 40 33 33 36 38 37 34 32 27 25 26 26 23 22 19 15 13 12 13 15 17 18 17 18 17 14 12 10
43 46 45 42 40 38 36 37 38 36 34 32 30 30 28 26 25 23 20 19 17 15 15 16 15 13 14 15 13 11 9 10
43 45 44 44 42 40 40 39 37 35 35 35 36 35 30 30 28 26 24 21 18 16 14 13 11 12 19 16 12 12 13 15
38 42 45 46 46 44 42 39 38 36 39 39 36 36 33 33 31 30 26 21 17 16 13 10 15 24 16 12 11 13 15 14
40 43 44 48 44 45 43 41 37 36 37 39 39 37 39 36 33 28 24 21 17 12 9 15 21 13 11 12 13 13 12 14
38 40 42 45 44 46 44 39 41 36 38 36 36 34 38 38 33 29 26 22 16 13 17 20 11 12 12 12 13 13 13 14
31 38 39 41 42 43 45 36 33 29 34 35 35 33 33 36 34 33 27 22 20 16 8 7 13 11 12 20 12 11 12 16
27 31 35 39 36 39 42 42 40 35 34 37 38 36 34 35 32 28 24 20 15 7 8 10 8 12 16 12 11 12 15 20
25 32 38 37 37 38 39 38 34 37 37 36 37 33 31 33 31 29 27 21 15 11 9 7 10 9 12 11 11 11 14 17
28 32 36 38 38 38 37 37 34 39 40 38 34 30 31 33 30 30 26 21 15 12 8 7 8 15 12 10 11 14 17 18
26 32 35 36 36 39 37 39 41 38 42 37 33 32 30 30 30 28 25 22 15 12 6 7 12 12 13 15 15 18 20 21
19 27 29 31 34 35 36 39 41 42 38 38 35 30 30 31 28 26 20 18 13 8 6 14 12 16 17 19 21 21 22 23
4 4 11 17 25 33 38 39 40 40 36 34 34 33 31 30 27 22 22 16 13 9 9 14 18 20 21 20 24 24 22 23
7 5 4 2 4 8 15 24 33 34 31 34 36 35 32 29 28 28 23 18 14 10 22 14 20 23 22 21 21 24 25 23
8 7 8 8 8 8 11 17 24 29 33 34 32 30 30 31 30 26 21 15 13 24 19 21 24 24 21 21 21 22 23 24

GFSFLT1_850_spd_024.txt.gz
Wind_Speed
25 29 27 25 25 24 24 24 24 24 22 20 22 22 22 20 18 15 15 15 14 13 11 8 7 6 6 8 9 11 11 11
27 27 28 27 27 26 28 26 26 25 26 24 25 25 24 21 18 17 17 17 17 14 11 9 8 6 7 9 12 12 13 13
29 30 30 30 28 29 30 30 29 29 29 27 27 21 21 19 18 19 19 18 16 15 13 10 8 7 11 12 12 14 15 14
32 33 32 30 31 32 31 31 31 30 28 28 27 24 22 21 22 23 23 21 19 17 14 12 9 10 11 13 15 18 17 15
33 33 34 34 32 30 29 30 31 32 32 32 31 29 29 26 24 25 24 22 20 18 17 14 11 11 11 12 17 21 18 14
38 38 37 35 33 32 30 32 34 35 35 35 33 30 30 26 25 25 25 24 22 21 18 15 12 11 9 15 20 21 17 13
42 40 40 40 37 36 36 35 35 39 40 38 36 35 33 30 26 27 27 26 25 22 20 16 14 11 14 23 25 18 14 13
42 42 43 42 42 39 39 40 40 41 42 42 38 36 36 32 29 29 31 30 28 25 21 13 12 15 21 23 18 18 14 15
45 45 44 43 42 42 42 43 43 39 40 40 36 37 36 35 34 32 32 33 30 27 22 24 21 24 29 20 17 12 15 14
39 45 45 43 41 43 43 43 43 38 37 31 34 37 40 40 39 36 32 33 31 24 23 19 21 22 21 12 10 13 12 10
26 28 37 41 39 37 39 40 42 40 40 30 30 36 34 39 40 39 36 35 30 22 20 19 16 13 8 10 10 12 10 9
14 17 22 28 30 31 30 33 39 40 40 32 29 32 36 38 38 35 37 34 27 26 21 17 10 8 9 5 17 13 10 9
13 15 18 21 24 28 28 31 33 30 28 31 31 34 35 32 31 33 35 31 28 23 16 12 9 9 5 17 13 11 11 10
13 16 19 22 28 29 31 26 23 25 27 30 33 36 34 34 33 34 34 31 26 20 15 11 12 7 16 11 11 12 12 14
10 14 19 23 24 26 26 24 28 31 31 31 33 33 36 32 32 35 33 29 22 16 14 13 11 11 11 13 15 15 16 18
3 7 10 14 16 19 21 23 27 31 34 33 33 34 31 30 33 33 31 26 22 18 19 17 10 17 13 17 20 23 25 25
12 11 9 7 5 7 12 16 20 24 27 29 28 30 32 31 32 32 26 24 23 21 18 15 16 20 15 19 23 25 25 28
14 12 10 8 6 5 7 9 13 18 21 23 26 30 33 32 31 30 28 27 24 21 16 16 21 16 17 23 24 26 26 25
12 10 8 7 8 9 10 12 15 15 17 20 24 25 22 24 25 24 23 25 29 27 21 21 24 20 23 24 24 25 26 25

GFSFLT1_850_spd_027.txt.gz
Wind_Speed
21 21 23 22 23 23 22 21 21 21 22 23 24 24 22 20 18 16 14 15 15 14 12 13 13 12 9 6 5 5 6 7
23 25 25 24 26 25 24 23 21 24 27 27 27 25 24 23 21 20 17 17 16 16 16 16 15 11 8 6 5 5 6 8
26 26 29 31 30 29 28 26 26 27 28 26 25 25 26 24 22 20 19 19 18 19 19 18 15 11 9 6 4 2 6 9
28 30 31 33 33 31 31 31 30 30 30 28 26 25 26 28 24 22 21 21 21 22 22 18 15 12 9 5 3 5 9 16
29 31 34 35 34 33 33 33 34 34 32 32 31 31 31 30 25 22 23 23 24 25 22 19 16 12 7 5 6 12 16 16
33 35 35 35 33 33 34 34 35 35 34 33 31 32 31 25 26 26 26 26 26 26 25 23 19 16 11 7 11 19 27 30
37 35 35 38 35 34 34 35 35 35 34 33 32 33 31 30 30 31 29 28 29 29 27 24 22 19 15 18 23 20 25 19
41 41 39 38 38 37 36 35 36 35 34 34 32 35 34 34 36 33 31 31 28 32 31 27 24 18 17 15 15 21 19 12
44 44 42 42 40 38 38 38 38 37 36 33 34 36 36 37 37 37 35 33 29 30 30 27 22 16 16 15 15 18 11 16
30 35 43 42 41 38 38 38 39 38 37 35 31 36 38 36 35 37 37 35 32 32 31 27 18 26 16 12 13 10 14 15
17 23 29 34 40 35 35 35 36 37 38 38 37 34 36 31 32 35 39 38 33 34 31 23 25 17 12 15 11 9 18 14
8 13 17 19 24 27 27 29 32 34 37 35 36 34 30 29 30 35 38 37 35 34 30 27 19 15 16 11 9 15 15 14
4 6 9 10 11 14 20 23 24 25 28 32 31 31 33 30 30 32 30 30 34 33 31 26 23 17 14 11 11 13 14 16
6 7 9 11 13 16 17 17 17 19 22 26 30 31 30 29 28 27 28 29 31 31 28 24 20 16 12 8 15 14 17 16
4 6 7 8 8 9 11 13 15 18 21 23 27 28 29 29 23 21 24 28 30 28 24 19 15 13 9 11 21 11 17 18
7 6 4 3 1 1 3 5 8 11 13 15 18 20 21 20 20 22 25 27 27 25 23 22 21 16 16 23 14 18 22 25
19 19 16 13 10 7 5 2 4 6 8 9 11 13 15 17 20 23 25 24 25 25 28 27 27 23 18 21 16 23 25 27
20 18 15 12 10 8 5 4 6 8 10 11 11 11 12 15 19 22 21 22 27 27 25 27 27 26 27 23 22 23 30 28
17 16 13 11 10 8 8 7 8 8 8 8 8 7 8 12 15 16 17 22 23 26 31 32 31 31 31 28 17 28 31 32

GFSFLT1_850_spd_030.txt.gz
Wind_Speed
18 19 20 22 22 22 22 22 20 18 15 16 16 19 19 19 20 19 18 15 15 16 16 16 16 13 10 8 7 5 2 2
17 19 21 22 25 24 23 23 21 19 18 19 19 21 19 21 20 22 21 18 16 18 19 19 17 12 11 10 8 6 4 3
20 20 22 22 23 24 24 24 22 22 20 20 20 20 20 21 26 24 23 22 21 21 22 20 19 16 14 13 9 6 5 5
22 23 24 25 26 26 25 24 22 22 22 21 19 20 24 26 28 27 25 24 24 24 24 24 23 20 17 15 12 10 6 7
24 26 27 28 28 27 26 26 25 24 24 23 24 24 21 26 31 26 27 24 25 26 26 27 25 24 21 18 16 11 10 14
26 27 27 26 27 28 27 27 26 26 27 28 25 25 21 19 26 23 27 26 27 29 29 29 28 26 22 20 14 12 14 14
29 28 26 27 27 28 28 29 28 28 29 32 32 27 24 26 29 29 30 31 30 31 31 31 30 26 23 18 15 13 13 15
30 30 31 30 31 30 29 30 31 30 32 35 37 36 35 34 35 34 32 32 33 34 33 33 31 27 25 20 14 22 17 10
32 33 33 31 31 31 31 32 32 30 33 36 36 36 36 35 36 37 35 34 35 34 35 25 32 30 22 16 23 20 13 10
22 25 29 29 29 31 32 32 32 31 32 32 33 35 36 40 35 36 32 32 35 39 36 31 33 26 20 19 23 15 14 10
9 14 18 21 24 25 26 27 29 29 26 28 28 31 32 30 26 32 33 34 35 37 37 31 31 27 22 25 16 15 11 11
1 5 8 12 16 19 20 23 25 23 23 22 23 26 31 27 29 35 35 33 34 35 37 36 33 26 26 22 17 13 12 13
1 3 7 9 10 12 14 15 16 17 16 17 19 24 26 28 28 30 30 31 31 32 34 33 25 26 22 18 14 13 12 19
4 5 6 9 10 10 10 11 11 12 16 16 17 19 23 25 26 28 26 25 27 31 32 28 29 26 23 19 21 18 22 17
6 7 6 7 7 7 7 8 9 10 10 10 13 14 16 17 19 20 20 20 22 25 27 27 27 24 22 22 23 25 21 16
7 8 9 8 8 8 7 7 6 5 4 5 7 8 9 10 11 12 15 15 17 17 20 24 23 24 25 22 21 21 20 18
11 12 12 12 12 10 9 8 6 4 3 4 5 6 5 6 7 8 10 11 13 14 21 24 27 27 28 29 26 24 21 21
15 15 15 16 15 13 10 7 4 2 0 1 1 2 2 3 4 5 8 10 13 18 23 25 25 30 34 29 29 29 32 24
16 16 16 15 13 11 9 7 5 4 3 3 3 3 2 1 2 3 4 6 10 14 20 23 28 33 30 31 33 34 23 23

GFSFLT1_850_spd_033.txt.gz
Wind_Speed
18 20 18 21 23 26 24 22 26 28 23 17 17 17 18 18 20 17 16 16 16 14 13 14 13 11 10 11 10 7 7 6
19 19 21 21 23 24 24 24 23 20 19 19 19 19 19 21 20 17 17 16 16 16 13 16 15 13 13 14 10 10 7 7
20 22 23 24 24 23 24 23 22 22 19 19 20 20 20 20 19 18 20 18 18 18 18 16 17 15 17 16 14 10 8 8
23 25 26 26 27 28 27 25 24 23 22 20 19 19 20 20 19 18 20 23 22 20 19 18 19 18 18 19 18 14 10 9
25 27 28 29 28 27 27 26 26 25 25 23 24 23 23 22 21 22 24 27 25 20 20 21 21 19 17 19 17 14 14 8
27 29 30 30 30 30 29 28 28 27 27 27 25 25 23 19 20 21 24 21 25 23 21 21 22 21 18 21 17 17 15 10
27 28 27 29 29 30 30 29 30 29 28 28 29 27 25 23 24 21 20 25 26 25 20 24 27 23 18 15 19 16 14 16
28 29 29 29 30 30 30 31 31 31 31 31 31 30 26 25 24 25 23 27 29 24 23 30 31 29 29 31 29 26 18 22
31 31 31 31 31 31 31 31 31 31 33 35 32 30 30 30 31 31 33 31 28 28 31 36 38 35 32 30 23 23 22 27
27 31 32 32 32 32 34 32 30 30 32 30 32 34 34 29 32 34 34 31 26 29 35 36 38 34 33 27 23 22 25 15
12 20 26 30 31 31 32 31 30 29 31 31 30 27 25 29 32 34 33 35 32 33 34 32 35 37 34 27 26 25 16 19
4 7 14 20 23 26 27 28 28 27 26 25 26 26 27 29 34 31 28 31 32 31 32 32 35 38 35 28 23 17 21 16
4 6 9 13 17 20 22 23 23 23 21 21 23 23 28 30 30 25 27 28 24 26 28 32 31 33 26 24 21 21 15 16
6 7 9 11 13 15 16 17 16 16 17 17 17 21 24 26 22 18 20 22 23 25 27 27 28 26 22 21 16 15 21 16
9 9 10 12 11 12 13 13 13 13 13 12 13 12 12 13 14 17 17 18 20 23 23 22 20 22 23 17 22 24 19 30
9 11 11 11 12 12 12 12 12 11 10 9 9 7 8 7 7 7 7 10 11 11 11 12 16 21 18 26 24 18 25 24
10 12 12 11 12 12 12 12 11 10 11 10 8 7 6 6 7 10 11 11 11 10 8 10 15 22 24 26 25 22 28 25
14 14 14 15 15 14 13 13 12 12 10 8 6 6 5 4 5 4 4 3 3 5 5 10 15 18 19 24 25 27 32 29
17 17 17 16 16 16 15 13 12 11 9 8 7 7 6 7 6 5 4 4 3 2 6 11 11 12 17 18 24 27 28 30

GFSFLT1_850_spd_039.txt.gz
Wind_Speed
14 16 18 20 20 21 25 32 34 37 38 36 33 38 35 30 25 24 20 19 20 23 19 18 19 21 21 21 16 15 15 13
17 18 21 25 25 27 32 35 36 36 37 35 36 36 30 30 30 23 22 23 22 22 22 22 23 21 21 21 21 21 21 18
24 21 20 26 30 31 33 35 38 34 31 34 36 33 32 30 28 27 28 27 25 26 24 27 24 24 22 23 24 25 24 22
30 28 28 32 36 37 38 41 38 36 35 34 33 29 28 28 29 30 29 28 24 29 27 28 26 24 23 26 26 26 23 22
34 32 32 34 33 34 38 40 40 38 35 32 33 32 34 31 29 31 29 28 28 32 29 29 30 26 22 26 27 27 23 17
39 37 35 35 33 35 35 38 38 36 33 33 33 37 33 26 27 29 30 31 31 31 27 29 30 29 26 27 25 28 26 23
40 37 36 35 34 34 34 36 37 36 35 35 37 36 35 36 34 34 31 34 32 32 32 32 28 30 31 29 29 28 31 31
46 44 44 40 40 39 39 37 40 39 38 35 36 40 36 40 32 30 32 29 29 27 33 31 34 34 34 29 27 28 32 30
48 46 46 45 43 42 43 43 42 44 43 43 40 37 40 35 37 34 29 30 31 38 34 28 32 36 36 30 27 28 30 30
42 48 48 48 47 48 47 44 43 46 47 46 47 47 43 44 37 39 25 38 38 39 34 31 29 31 33 33 32 29 29 29
37 44 48 50 48 48 49 47 42 42 45 50 49 48 47 45 43 35 27 31 31 36 43 35 31 32 35 35 29 28 26 29
29 41 36 42 43 51 51 51 39 36 38 45 49 51 53 45 40 41 35 27 32 30 33 30 31 32 34 31 26 25 27 29
10 11 21 14 26 47 40 48 51 46 32 46 48 52 47 40 38 33 32 28 30 24 20 23 25 25 23 23 23 25 27 27
15 13 10 11 11 9 21 47 52 47 37 39 41 34 27 29 30 22 20 25 21 18 21 20 19 18 20 20 19 21 24 24
22 18 14 12 11 8 11 27 31 24 24 24 21 18 17 19 21 18 20 18 20 19 17 16 16 16 18 18 17 18 20 21
23 23 20 17 15 14 13 15 19 18 20 19 18 18 21 19 15 14 17 17 15 15 16 17 19 19 18 18 16 17 15 15
20 20 24 22 21 20 19 17 18 19 19 20 20 20 19 16 16 17 15 14 13 15 16 17 18 19 17 14 10 9 11 12
19 20 27 28 27 25 25 23 20 19 20 20 20 18 16 16 14 15 14 13 12 12 13 13 13 12 10 10 9 10 12 15
25 25 28 28 27 27 28 24 22 21 20 19 18 18 16 15 15 13 12 10 10 10 10 10 10 10 8 8 10 13 15 14

GFSFLT1_850_spd_042.txt.gz
Wind_Speed
9 14 16 18 18 21 31 38 40 38 41 45 44 44 39 32 34 35 23 18 17 17 17 17 20 20 19 19 19 17 19 17
11 15 18 20 22 26 35 39 41 42 44 45 46 48 42 36 39 40 21 19 20 22 20 20 24 23 21 21 23 24 24 21
17 17 20 23 25 28 34 38 39 42 42 40 43 40 39 36 44 39 26 21 25 24 22 23 28 26 27 24 25 26 24 23
26 24 24 24 28 29 31 35 36 37 38 38 33 33 36 32 44 41 32 28 27 26 27 28 30 30 30 29 28 27 26 27
33 31 28 28 29 29 32 35 35 33 37 39 37 39 42 44 40 35 35 35 31 32 32 30 32 33 31 30 28 28 27 29
42 38 34 32 30 32 34 37 38 35 36 39 39 45 45 42 39 40 36 37 38 32 31 29 33 35 35 33 31 32 32 34
46 41 36 35 36 36 39 41 42 41 38 40 46 48 46 42 40 39 36 37 37 33 30 32 32 37 35 35 34 33 33 32
49 45 44 41 43 43 43 48 47 45 45 45 46 46 44 42 41 39 37 35 36 36 36 30 33 36 35 37 37 34 31 33
49 50 47 45 45 45 46 46 47 47 47 46 45 44 44 45 44 43 41 40 37 33 36 33 29 28 33 38 36 34 29 32
50 50 49 47 46 47 48 48 47 47 49 48 46 45 47 47 45 46 44 41 34 39 30 31 27 30 31 37 38 34 33 33
49 49 50 49 47 45 47 49 50 51 51 50 49 48 47 46 46 45 40 39 40 32 30 34 36 35 34 39 38 35 35 34
45 46 49 50 48 47 48 49 51 52 51 49 50 50 50 49 49 46 43 43 39 28 34 34 38 38 38 38 35 34 34 31
36 42 43 47 49 51 49 50 51 53 52 45 42 39 39 41 42 46 44 31 26 34 41 33 33 36 34 32 32 33 32 26
21 23 32 38 38 41 47 50 54 55 47 43 40 33 31 44 40 41 36 39 38 39 34 30 25 27 28 27 27 25 21 21
26 26 26 25 25 23 26 33 38 46 49 50 48 37 34 38 37 39 43 39 38 41 31 25 23 23 22 22 21 19 20 22
29 28 24 22 20 20 21 22 27 43 45 43 46 45 34 31 36 35 32 38 33 29 27 25 21 20 20 20 20 18 19 18
30 30 26 25 22 21 21 18 22 33 40 38 36 34 34 30 28 27 26 27 26 24 22 21 21 22 20 19 18 16 16 16
30 34 33 30 27 28 25 22 21 25 26 30 27 29 28 28 29 26 25 23 22 20 20 21 21 20 20 19 17 17 15 15
29 34 34 32 31 29 24 22 23 26 26 28 31 31 30 27 25 23 22 22 19 17 18 19 20 19 17 18 18 16 15 17

GFSFLT1_850_spd_048.txt.gz
Wind_Speed
9 9 14 13 14 21 21 27 33 36 35 35 38 36 39 39 35 34 32 28 24 22 19 16 16 14 12 12 11 11 10 9
10 9 13 15 16 17 21 32 31 35 40 33 38 39 40 40 35 29 27 29 26 24 19 17 16 14 12 13 14 15 13 14
16 15 14 19 19 18 19 31 34 36 41 39 40 41 39 39 38 30 30 26 26 22 20 20 16 14 15 16 17 19 18 19
21 20 17 20 22 23 23 24 28 33 39 36 40 38 36 40 38 33 36 33 31 23 25 19 18 17 18 17 20 23 21 21
25 22 21 21 20 20 20 24 27 30 35 41 42 43 46 49 43 35 32 31 36 28 24 22 22 21 21 20 21 25 26 27
31 28 23 18 20 21 21 23 27 30 35 38 43 44 48 50 46 41 37 41 38 38 28 24 25 24 24 24 24 26 31 34
31 30 26 22 21 23 25 27 28 33 36 36 39 43 48 50 50 47 45 44 46 45 39 35 31 29 27 28 28 31 34 37
32 32 32 29 25 25 25 27 30 34 36 39 41 40 42 46 50 48 50 50 51 48 47 44 41 35 32 32 35 35 35 36
33 33 32 31 29 27 28 29 30 32 35 36 37 40 42 46 45 46 47 50 51 51 49 46 42 39 36 38 41 39 36 32
33 34 32 32 33 32 30 31 31 33 34 34 37 39 43 44 42 41 42 42 43 43 40 41 41 43 41 38 38 41 38 31
28 32 32 32 32 33 33 33 33 34 36 37 38 38 39 40 40 40 41 39 40 39 40 42 43 44 45 44 36 38 39 33
22 28 31 31 33 35 36 37 37 37 38 39 41 40 37 34 33 33 35 37 43 44 45 44 45 44 48 47 31 34 35 38
25 23 28 31 32 35 38 40 42 42 41 42 42 39 42 41 43 39 31 41 45 44 48 48 41 45 40 36 36 35 35 31
22 21 25 27 30 33 34 36 40 44 45 45 44 46 46 46 48 41 45 45 39 34 43 43 46 48 43 34 30 35 34 32
22 20 22 25 28 33 33 33 34 36 41 46 48 50 51 52 49 46 50 54 49 47 43 44 44 41 41 38 39 31 30 29
20 21 21 23 28 31 31 29 32 32 32 36 38 43 47 47 47 49 52 52 51 49 49 42 40 38 38 36 36 35 30 25
24 25 25 27 25 25 29 27 28 30 32 32 32 35 39 40 39 41 44 49 50 47 43 38 41 39 43 37 38 35 27 23
27 23 26 29 29 26 28 30 29 30 33 33 33 32 34 34 33 37 39 42 42 40 36 34 37 35 36 34 28 23 21 20
32 34 32 29 32 36 32 33 30 28 31 31 29 27 28 31 33 35 37 38 35 32 32 36 32 27 26 23 22 20 19 20

GFSFLT1_850_spd_051.txt.gz
Wind_Speed
10 9 11 13 13 15 25 28 31 32 33 37 42 40 41 46 42 36 34 34 30 28 24 22 22 21 18 15 11 11 11 11
11 9 12 14 13 16 19 30 27 33 36 36 41 40 40 42 44 35 37 36 31 28 25 23 23 21 17 14 12 12 13 14
16 14 14 17 17 17 22 23 31 33 37 36 40 42 41 41 35 35 38 36 32 28 27 25 25 21 21 16 14 15 17 16
23 20 16 15 20 22 22 24 30 36 35 37 38 36 37 40 40 39 36 35 32 31 28 26 22 22 21 18 15 16 19 19
25 23 21 20 18 21 23 24 30 34 40 37 45 43 43 45 45 43 37 33 31 33 28 27 25 24 23 21 18 18 20 23
31 28 23 19 20 22 25 27 28 32 32 40 39 44 44 43 46 50 44 40 39 37 35 28 30 30 25 24 23 23 22 24
31 28 25 23 21 23 25 27 30 32 35 41 41 49 48 45 45 49 48 40 46 44 41 39 32 30 26 23 24 25 25 25
29 32 32 29 27 25 26 28 31 36 37 40 44 45 48 52 52 47 49 48 43 42 39 40 39 36 33 30 28 27 29 31
26 32 34 32 29 29 28 29 30 33 37 41 42 43 46 49 47 51 55 54 48 44 42 44 44 43 43 40 39 36 33 35
22 29 34 34 33 32 31 30 30 32 32 35 39 42 44 46 47 50 52 56 54 51 50 49 48 48 48 47 47 45 40 38
17 24 31 34 34 35 34 32 31 30 31 33 35 37 40 43 44 45 47 49 51 52 50 51 50 51 51 46 44 42 41 41
15 18 25 30 32 34 36 37 36 36 35 35 37 38 39 40 39 38 38 39 40 39 37 40 41 43 43 42 43 44 40 39
12 17 19 25 31 32 35 38 40 39 38 39 39 39 39 39 39 41 42 44 39 33 41 40 40 42 41 43 46 45 39 39
10 12 18 22 27 30 30 33 36 40 42 42 42 42 40 41 42 41 41 37 36 42 34 39 36 40 46 46 42 43 37 31
14 16 21 22 25 29 28 28 31 35 38 41 44 44 44 45 44 42 42 40 40 40 41 38 36 30 34 37 40 39 36 32
23 22 21 22 22 26 26 25 26 28 30 33 34 38 42 44 46 45 45 44 44 45 44 45 44 43 46 47 42 33 37 35
29 25 23 24 23 23 25 23 25 27 27 27 30 31 33 36 37 40 41 43 46 48 49 47 49 50 46 41 33 31 32 34
28 27 29 26 26 25 27 25 27 29 28 29 30 30 28 28 31 33 33 35 35 39 43 43 41 36 35 29 33 36 35 34
20 27 31 34 32 27 27 31 30 29 31 31 31 29 27 27 29 28 29 30 31 31 29 29 29 28 24 28 29 30 27 24

GFSFLT1_850_spd_054.txt.gz
Wind_Speed
11 10 11 15 15 17 20 18 18 17 27 34 35 37 44 40 36 37 33 33 37 30 24 25 23 19 20 18 16 16 14 14
13 11 11 15 15 18 22 24 24 23 26 38 36 34 48 49 44 44 29 35 34 32 24 28 24 19 19 21 16 16 15 16
16 14 14 16 17 19 21 25 27 28 30 34 36 37 46 48 47 48 32 33 33 33 26 28 28 20 22 23 19 17 14 18
20 19 17 16 19 20 23 28 29 30 33 39 39 37 44 44 54 41 37 32 32 30 34 27 28 26 25 24 20 17 15 16
22 22 20 19 19 20 22 28 31 30 31 39 42 44 43 44 49 48 32 30 34 31 33 31 30 28 27 21 21 20 19 18
26 25 22 20 20 22 23 27 29 32 37 40 38 42 44 43 46 48 36 35 36 38 35 34 31 28 26 24 25 25 22 23
25 23 22 21 20 21 23 25 30 34 39 41 40 44 44 44 47 49 43 38 39 42 38 35 32 30 30 30 28 27 27 26
24 27 27 25 25 25 25 27 29 34 39 42 44 42 48 44 47 51 49 46 43 42 39 37 36 32 31 31 30 27 26 26
22 28 29 29 29 28 28 28 28 31 37 42 38 40 47 47 43 50 51 51 52 49 45 45 44 41 39 37 35 33 31 33
17 25 31 30 31 33 33 31 30 30 33 37 42 40 41 47 44 48 50 51 50 53 54 56 55 52 46 44 42 40 33 32
16 23 29 30 30 30 33 33 31 31 32 34 36 40 42 41 43 48 55 55 57 54 55 57 53 52 51 48 49 46 37 36
11 19 24 28 28 30 34 34 32 33 34 35 35 39 41 43 47 49 51 56 59 60 61 58 60 58 55 49 45 46 45 43
8 14 19 25 29 30 33 35 36 36 34 35 38 35 37 41 49 50 51 54 50 55 54 58 60 53 48 46 43 45 38 36
8 8 16 21 26 30 33 36 39 37 36 37 37 40 41 44 45 45 45 45 43 43 44 46 46 47 41 47 46 40 38 38
15 11 13 18 23 28 31 34 36 37 36 38 40 43 44 43 42 43 43 43 42 42 44 44 45 43 42 40 38 40 35 40
18 16 15 16 21 25 27 30 33 36 36 37 44 45 45 42 43 42 42 43 44 42 40 40 39 36 39 34 32 32 33 36
24 20 18 18 20 24 24 28 32 33 36 39 37 37 38 41 41 41 39 41 41 39 39 38 37 38 43 43 41 39 38 37
29 28 21 18 18 23 27 28 26 32 34 33 34 34 35 35 34 35 36 36 32 33 33 33 34 34 37 43 42 40 40 35
31 30 27 20 19 18 23 22 26 31 32 31 31 33 33 30 29 29 28 28 28 29 31 32 34 35 34 30 25 28 29 31

GFSFLT1_850_spd_057.txt.gz
Wind_Speed
14 12 11 12 13 16 15 13 13 12 14 29 37 44 46 41 42 40 40 31 33 28 24 21 22 19 18 17 17 17 16 16
14 14 13 13 14 17 18 17 16 15 21 32 32 33 35 42 38 33 34 29 30 25 24 22 21 20 18 19 18 17 16 16
17 16 16 16 17 18 19 21 21 19 22 34 33 37 42 46 45 34 38 35 34 33 27 23 25 19 19 20 19 17 16 17
19 19 18 17 18 19 23 22 24 24 24 32 30 38 38 44 43 39 43 37 28 33 26 27 29 23 23 24 21 19 17 17
21 22 21 19 19 19 22 24 25 27 27 33 35 39 44 49 49 47 44 38 33 37 31 26 24 28 24 24 22 21 18 18
22 24 23 21 20 21 21 25 27 30 31 32 34 37 39 51 49 47 43 39 39 34 31 29 27 27 27 25 25 25 24 22
20 23 23 22 21 21 22 24 29 29 32 33 36 37 40 47 54 53 47 40 40 40 34 33 34 33 30 31 29 28 27 24
19 24 26 25 25 25 24 26 27 33 35 35 37 41 44 42 49 48 58 45 41 39 38 35 36 37 37 32 30 32 29 27
16 23 27 27 28 28 27 26 27 31 38 37 36 35 41 39 46 50 55 59 54 45 40 41 43 41 40 37 36 33 35 31
14 18 26 28 29 30 29 27 27 28 32 40 40 40 37 39 40 43 49 55 59 54 49 46 45 46 45 42 40 38 33 32
14 16 22 28 29 29 29 29 29 28 29 35 40 42 42 42 43 42 46 50 53 48 54 51 49 48 48 45 45 44 41 39
8 11 16 24 28 30 30 30 30 30 30 31 32 41 41 41 42 48 44 42 47 47 45 48 49 49 47 43 46 47 44 44
6 5 10 18 25 29 31 30 32 32 33 33 34 33 37 43 46 47 48 44 44 43 47 44 45 47 46 46 45 45 45 45
11 4 6 14 21 28 31 31 32 32 33 36 39 41 41 43 45 48 48 49 47 46 44 44 48 46 44 46 46 46 45 45
16 15 9 11 17 24 30 32 31 31 33 36 39 44 45 46 46 47 48 49 48 49 48 48 49 48 47 48 46 46 46 46
20 21 17 16 16 21 26 30 32 34 36 37 43 46 46 41 42 43 46 45 48 46 46 48 48 47 49 47 45 46 47 51
20 21 21 20 20 19 23 27 32 33 36 43 43 39 40 43 43 45 43 44 44 44 44 44 45 46 47 46 45 42 45 42
25 24 23 22 22 19 19 24 26 31 37 41 39 41 41 44 44 40 43 44 41 43 44 44 44 42 42 43 43 43 40 40
26 26 25 24 23 23 23 21 25 30 33 36 37 39 42 40 40 42 42 42 42 41 40 39 38 38 39 39 38 38 38 41

GFSFLT1_850_spd_060.txt.gz
Wind_Speed
16 13 12 16 12 15 13 12 12 13 13 15 13 20 36 46 42 43 40 37 34 31 26 25 29 25 24 21 23 21 21 21
19 18 15 15 13 17 18 17 15 14 12 14 16 30 39 42 43 40 32 35 36 34 25 23 26 24 24 22 22 22 19 21
21 20 18 18 15 15 19 17 17 14 14 24 34 36 38 42 38 40 34 37 37 34 29 30 27 23 21 22 22 22 20 22
26 23 21 20 19 19 23 22 19 14 15 26 29 36 39 42 39 41 38 33 34 31 32 34 31 28 24 20 25 24 25 23
29 27 24 24 22 20 21 24 24 19 19 26 34 37 39 45 49 45 39 36 37 39 33 33 31 28 25 26 26 26 22 24
29 30 26 23 23 23 22 27 26 26 25 29 34 34 37 46 46 45 45 40 39 41 38 32 35 31 27 29 29 28 27 24
23 28 26 25 22 25 23 27 29 31 30 30 35 35 39 46 51 49 45 44 44 43 40 35 30 29 33 27 26 27 29 31
21 30 29 28 27 31 25 27 33 36 34 32 33 36 39 42 50 56 54 49 47 49 40 40 37 34 35 38 35 32 32 32
17 25 29 30 31 31 27 29 29 36 36 35 35 37 38 41 41 53 59 55 47 50 48 42 43 36 40 39 38 38 36 36
12 17 27 30 32 33 30 27 27 29 37 38 39 37 36 38 39 43 55 54 53 46 53 48 47 45 41 43 42 41 38 38
18 17 23 29 30 31 32 29 28 29 29 38 42 42 41 41 39 43 45 49 55 57 55 53 47 48 45 44 44 42 41 42
5 9 19 27 30 31 32 32 29 30 32 29 38 43 41 41 40 44 43 42 50 51 56 60 53 47 45 45 46 46 46 46
6 3 2 8 26 29 31 31 32 32 33 32 30 35 43 45 45 43 42 42 42 45 53 56 56 61 59 54 53 52 49 48
18 19 2 6 12 21 27 31 32 33 33 36 37 34 36 42 44 49 47 47 46 47 49 50 53 56 59 59 56 52 50 49
23 26 28 27 4 15 22 27 32 32 34 36 39 42 40 39 40 43 46 47 48 51 51 49 51 52 48 50 50 51 51 52
18 22 25 27 24 20 11 23 29 33 34 37 43 43 43 41 41 44 45 47 50 50 51 52 52 49 53 55 53 51 50 51
15 17 20 25 27 27 24 24 25 30 35 38 41 40 41 45 45 44 43 46 48 50 52 53 53 55 58 56 53 49 49 49
19 20 21 22 24 27 28 27 21 19 31 37 40 40 41 44 46 45 47 49 47 51 54 51 53 54 54 53 52 50 49 46
19 20 22 22 20 17 20 21 22 25 26 33 37 40 43 45 44 46 49 50 49 48 48 49 50 51 48 48 47 45 46 47

GFSFLT1_850_spd_063.txt.gz
Wind_Speed
24 22 19 16 15 11 14 16 20 21 22 21 21 22 24 34 39 39 31 39 40 35 34 35 32 30 30 26 26 25 25 21
27 24 19 17 15 13 14 17 19 22 22 24 26 27 30 43 40 42 38 42 37 34 36 33 33 33 32 32 26 26 25 22
33 28 24 21 17 13 18 16 18 18 18 20 21 23 29 28 42 43 44 39 36 33 35 36 28 35 36 30 29 28 24 25
37 32 28 22 19 17 18 18 19 17 15 13 16 23 31 39 41 43 51 39 31 34 30 37 34 26 31 29 29 28 26 24
40 37 31 24 21 17 17 21 19 18 19 16 21 30 34 36 41 40 47 46 34 34 38 33 30 28 29 27 28 29 22 28
41 38 32 24 22 21 18 21 22 21 20 25 26 29 34 41 46 39 39 40 38 41 34 36 33 34 32 29 28 29 26 34
41 36 31 25 21 21 20 20 25 24 22 25 29 30 38 43 43 44 40 39 36 37 39 37 35 36 34 33 32 30 27 32
42 38 33 28 24 23 22 20 28 27 27 27 31 35 38 38 39 46 45 41 37 36 40 38 36 39 38 35 35 32 34 36
42 38 33 31 26 23 22 24 25 31 32 32 31 35 38 36 39 46 47 50 46 42 42 43 42 37 36 37 37 32 36 36
39 40 34 30 29 26 22 24 22 30 33 35 34 32 35 35 38 46 51 51 49 46 43 43 44 43 39 37 37 39 38 38
37 37 35 31 27 27 25 23 22 22 33 36 37 37 37 39 39 43 49 52 51 51 50 50 48 46 45 42 43 45 42 43
17 34 33 30 30 31 31 27 23 23 23 34 38 39 41 41 42 41 43 46 49 55 57 55 57 57 54 48 50 50 48 47
39 44 11 29 33 33 31 30 26 24 22 25 31 37 41 42 44 44 43 45 44 46 54 60 58 60 60 61 56 55 54 52
31 32 34 22 7 24 30 29 29 27 26 25 27 31 35 44 46 46 44 45 46 47 48 55 57 60 60 60 63 60 58 57
33 31 27 26 23 19 3 22 30 26 30 29 31 32 33 35 40 45 46 46 47 47 50 50 52 56 56 57 64 66 63 63
30 28 26 25 24 21 17 14 19 36 33 29 35 34 34 35 36 39 44 48 51 50 48 50 51 51 54 55 57 59 61 61
23 21 22 23 22 22 22 20 12 13 23 42 37 37 39 39 39 40 40 44 47 52 55 56 56 57 57 56 56 56 57 57
23 19 18 20 24 25 24 24 21 16 8 11 31 43 44 43 44 44 43 45 45 48 52 54 58 60 59 56 55 54 56 56
20 17 15 18 22 23 22 22 22 20 18 15 9 9 30 45 48 49 50 49 49 49 50 52 54 58 58 58 57 56 55 57

GFSFLT1_850_spd_066.txt.gz
Wind_Speed
30 23 23 22 18 13 12 17 20 20 19 21 21 22 26 31 33 36 42 43 39 39 38 38 37 38 37 37 36 32 29 25
32 26 25 25 21 16 13 21 26 25 27 27 25 25 28 33 36 41 44 43 40 39 38 38 38 40 36 34 31 30 28 23
34 31 30 29 23 18 14 22 27 30 28 29 30 28 27 29 38 46 45 44 41 40 39 40 39 39 38 34 35 35 31 26
39 38 35 32 27 21 17 18 26 29 29 28 29 29 32 29 40 49 51 42 41 40 41 39 41 39 40 36 39 34 35 32
44 42 38 34 28 21 17 17 24 27 27 28 27 30 31 33 34 42 49 42 42 40 37 38 42 39 38 37 38 35 33 35
48 47 39 35 28 23 19 17 22 25 24 22 22 22 22 21 30 30 43 42 42 36 33 39 36 39 39 40 39 35 33 35
50 46 40 34 29 24 22 19 22 25 26 26 22 25 22 27 31 35 42 42 33 34 36 41 39 35 28 31 26 35 34 37
44 44 42 35 32 28 25 22 22 25 27 26 27 25 27 28 31 35 42 51 44 35 32 34 36 37 31 28 36 38 37 38
50 47 41 36 32 29 26 24 21 24 27 26 29 30 29 30 36 41 44 49 51 44 41 37 34 33 31 36 41 38 35 39
48 44 39 35 32 28 26 23 22 21 25 28 27 30 32 34 40 42 39 41 44 49 45 44 42 43 43 44 41 40 38 40
42 41 37 33 30 27 25 22 19 18 21 25 29 29 32 35 38 39 39 41 44 45 45 43 42 45 45 42 44 44 42 42
21 27 29 29 29 28 25 23 20 20 19 23 26 32 33 34 38 39 39 40 46 48 47 45 45 46 47 48 46 45 47 45
19 14 9 10 16 20 24 24 23 20 18 20 24 25 32 36 37 38 38 39 42 48 49 50 50 50 50 52 52 53 53 52
41 36 24 18 10 2 8 17 22 23 24 23 23 26 28 32 35 39 39 40 42 44 48 55 55 54 54 55 57 57 57 58
35 35 32 29 26 24 16 7 3 20 28 28 30 29 29 30 30 32 36 39 42 45 47 51 53 55 58 62 61 62 64 66
32 29 27 24 20 16 12 8 9 5 15 27 31 32 32 33 34 35 35 36 39 42 45 47 48 53 55 57 59 62 66 64
29 25 25 24 23 20 16 12 10 5 5 4 14 26 30 36 38 39 39 40 42 41 44 48 50 51 53 54 56 58 58 60
23 22 23 24 22 20 19 18 14 10 7 7 4 8 12 24 34 34 42 46 46 47 46 45 48 52 52 54 53 53 55 57
20 17 17 18 16 16 19 19 18 17 15 12 11 13 13 15 14 24 38 42 43 50 51 50 51 50 48 51 53 54 55 58

GFSFLT1_850_spd_069.txt.gz
Wind_Speed
38 34 29 24 19 16 12 14 17 17 16 16 16 18 18 18 24 23 27 36 38 38 37 36 36 36 40 43 45 39 31 26
38 34 30 27 24 19 14 15 18 19 19 20 20 22 20 22 25 31 31 29 34 34 35 35 36 38 39 41 46 40 30 26
37 36 33 32 26 21 16 16 19 23 20 21 23 23 23 23 25 33 34 33 38 36 36 34 36 36 37 40 47 41 33 28
40 39 37 34 31 24 19 17 20 23 24 26 24 22 21 24 29 32 36 35 37 37 35 36 38 38 40 40 46 42 38 32
42 42 39 38 33 26 20 18 22 24 26 28 29 29 29 28 29 33 39 38 39 37 33 36 39 40 41 40 40 38 37 37
44 47 43 40 34 28 23 20 21 23 26 30 30 29 31 32 34 32 36 45 42 41 39 36 39 41 44 40 37 38 37 37
45 43 43 39 33 29 26 23 21 23 24 27 28 28 28 28 27 32 32 37 46 41 38 36 37 42 43 42 42 39 40 38
38 44 44 40 36 32 29 26 23 23 24 24 23 19 21 22 22 26 28 32 44 40 40 39 35 37 42 39 41 42 43 40
44 49 45 42 39 35 31 27 24 22 22 21 19 19 20 21 21 23 26 29 33 41 42 40 35 37 44 42 43 40 40 37
43 45 43 42 39 35 31 27 25 22 21 20 22 20 22 19 20 24 25 26 37 40 40 40 36 37 38 40 41 33 36 33
30 38 39 39 37 33 29 25 23 20 20 20 21 21 25 22 21 22 26 29 43 41 37 35 33 33 37 41 37 34 37 41
19 20 25 30 31 29 27 24 21 20 19 19 20 22 24 24 24 25 29 32 37 42 39 40 38 38 38 39 39 41 43 45
20 18 13 9 9 15 18 19 20 19 16 18 19 20 22 25 27 28 31 37 35 35 37 40 43 46 45 47 48 48 49 51
36 32 26 20 14 11 7 6 9 14 18 19 19 19 22 23 26 29 32 36 40 40 40 42 46 46 48 50 52 53 54 53
34 36 34 28 23 19 16 12 7 10 15 17 19 19 20 22 24 27 28 30 35 38 40 41 44 47 50 52 54 55 56 58
31 30 28 27 24 18 15 12 8 7 6 9 16 17 20 23 26 27 30 32 32 34 37 41 44 48 51 53 56 60 62 62
25 27 25 25 22 20 16 12 9 6 7 4 3 11 18 21 23 25 29 33 37 37 38 39 42 45 49 53 56 60 61 62
18 21 18 18 19 18 18 15 11 7 5 2 2 5 9 12 16 24 26 31 31 36 39 42 45 46 47 48 48 52 55 58
14 17 13 14 14 14 14 12 11 10 8 8 7 6 7 10 13 16 19 25 29 31 37 42 45 48 48 50 52 50 49 53

GFSFLT1_850_spd_072.txt.gz
Wind_Speed
42 39 35 28 25 20 18 15 16 17 17 15 16 15 17 17 16 21 27 37 36 40 35 36 34 40 42 40 38 34 31 25
41 42 34 30 27 24 20 18 17 19 20 20 19 15 16 15 11 11 25 43 43 34 34 36 36 42 44 43 40 36 29 26
35 40 36 33 32 27 23 19 17 20 20 19 19 18 17 14 14 16 20 20 27 25 30 33 36 37 40 42 42 39 33 29
36 36 36 37 37 31 25 20 17 19 21 19 18 18 17 15 16 22 24 28 28 32 31 33 33 37 40 43 46 46 42 33
32 34 36 41 38 33 26 21 18 18 23 20 19 18 20 20 20 21 25 31 27 33 35 37 31 34 35 40 43 43 41 37
28 34 37 41 38 33 28 22 18 19 22 22 20 21 18 18 19 21 27 28 30 27 33 36 36 36 37 37 39 45 39 38
21 28 34 38 37 33 30 25 19 18 21 23 24 22 23 22 21 22 25 26 30 31 28 38 33 34 37 37 35 40 42 37
24 32 36 40 39 35 32 26 20 18 19 21 23 23 24 23 23 25 23 24 28 33 35 34 32 31 36 37 39 36 39 40
27 32 37 41 39 36 32 27 21 17 16 17 19 19 19 18 16 17 20 22 28 24 37 36 34 33 35 41 39 40 39 38
28 33 35 39 39 36 32 26 20 16 14 15 16 16 17 14 12 12 13 17 19 24 26 38 34 34 32 37 41 44 47 45
16 24 27 30 31 32 30 23 16 13 11 11 11 13 14 15 14 13 13 15 19 21 21 33 33 32 31 35 38 39 39 43
11 15 19 21 24 25 24 20 16 14 10 10 10 10 12 13 16 14 14 15 18 22 23 28 29 31 32 34 35 38 41 44
21 16 16 17 17 16 15 14 13 11 9 8 9 8 10 11 15 15 15 15 16 21 26 28 29 30 30 32 33 35 38 38
31 31 28 24 18 13 10 10 11 11 11 11 10 10 8 10 9 13 17 18 19 22 24 29 31 31 33 37 39 39 41 43
30 30 29 27 23 18 14 10 9 10 9 10 12 12 11 11 12 13 14 15 20 25 28 32 34 36 39 41 43 44 46 49
28 29 27 26 23 19 15 10 6 4 13 16 15 16 13 13 13 14 17 20 22 24 26 29 33 36 40 42 43 46 51 52
21 24 25 24 20 17 15 11 7 9 9 8 9 10 14 15 16 19 19 20 19 22 27 31 33 34 36 36 38 44 48 50
17 20 22 18 19 18 15 13 10 8 6 6 7 6 7 9 13 16 18 21 24 27 28 31 35 35 36 36 36 41 44 45
14 15 17 14 15 13 12 10 10 9 9 7 6 3 2 7 11 13 15 17 20 22 26 28 28 29 33 36 41 43 46 48

GFSFLT1_850_spd_075.txt.gz
Wind_Speed
18 25 31 33 28 25 22 20 18 16 16 17 16 17 16 17 18 17 24 35 42 39 39 38 36 37 40 38 34 30 29 28
25 25 31 33 29 28 26 23 20 18 19 20 19 18 16 17 18 17 14 28 40 40 38 32 33 36 39 41 35 32 31 28
26 29 28 35 33 31 29 25 21 20 19 21 21 19 15 18 15 12 17 21 33 38 37 36 36 37 40 42 38 36 33 31
26 30 31 34 36 34 33 26 22 19 19 20 18 16 16 17 14 15 10 15 32 32 32 34 35 38 40 44 42 42 37 34
27 31 34 35 37 36 33 27 22 19 21 22 19 19 19 18 18 18 16 16 19 32 24 25 30 33 36 40 41 41 40 36
24 31 32 31 35 36 35 28 23 19 20 22 19 17 17 17 16 18 18 22 22 26 29 32 29 31 34 38 40 43 41 42
20 23 26 28 32 36 34 29 24 19 18 21 19 17 18 15 17 18 19 19 22 26 30 35 35 33 33 33 35 39 42 42
16 22 28 31 32 36 35 31 26 20 18 21 20 17 16 16 15 14 17 18 22 27 26 33 38 37 34 35 37 36 41 43
21 23 24 27 30 34 37 34 27 20 17 17 20 19 19 18 17 18 20 21 20 21 28 24 25 38 36 35 36 36 37 40
17 19 19 21 25 29 34 33 25 18 14 15 16 18 18 18 16 14 14 15 17 20 24 27 28 29 33 34 41 39 38 39
9 13 15 18 22 26 31 29 22 16 14 13 13 12 13 14 10 10 10 10 13 16 21 22 25 33 28 33 34 41 42 40
7 11 14 17 19 24 27 25 22 16 12 11 10 10 11 11 11 11 9 8 12 14 17 19 22 28 32 28 30 32 43 48
14 16 17 18 19 22 22 21 18 15 12 10 10 9 9 9 10 10 11 11 11 13 16 15 17 22 28 27 26 27 30 40
24 27 25 23 21 22 21 19 16 12 9 7 7 7 6 7 7 7 9 10 10 11 15 16 17 20 23 22 25 27 26 28
24 29 26 25 23 21 19 17 14 11 9 7 7 7 5 4 6 7 7 8 10 12 14 16 18 20 23 25 26 28 30 33
24 25 25 23 22 20 19 18 13 12 12 10 10 10 10 9 8 9 9 10 11 12 14 16 19 23 26 29 32 36 38 38
20 22 23 22 19 18 18 18 18 12 10 9 7 7 9 12 12 12 12 12 13 15 17 20 22 26 32 33 35 37 36 35
20 22 22 20 19 16 15 15 13 10 6 0 4 5 6 8 10 12 13 15 16 17 19 20 22 26 30 30 32 33 34 37
17 18 17 16 15 16 14 15 13 8 5 6 4 4 5 6 7 9 9 10 13 15 17 19 20 23 27 29 31 31 32 34

GFSFLT1_850_spd_078.txt.gz
Wind_Speed
15 12 16 20 23 25 26 24 23 19 18 19 17 18 19 19 22 21 25 22 29 35 38 40 39 33 33 29 27 24 22 21
17 13 16 19 24 26 27 27 25 22 20 20 20 19 18 18 18 21 19 25 32 32 40 41 38 38 37 35 27 26 23 23
20 15 18 22 26 27 29 29 27 23 21 19 19 19 16 16 17 18 20 18 25 43 38 38 39 42 36 38 32 27 25 25
23 18 19 21 26 29 30 29 26 24 18 17 17 17 19 18 20 18 17 21 22 31 37 37 38 40 38 42 37 31 28 27
23 19 20 24 25 25 27 25 26 22 20 17 19 20 21 18 18 17 16 14 12 23 42 41 37 36 38 36 33 35 30 29
23 21 20 22 25 27 27 26 26 22 20 17 16 18 18 17 19 17 16 12 8 27 38 35 32 38 36 34 34 34 31 27
16 17 18 22 25 27 28 28 27 24 20 18 20 19 17 14 19 19 17 17 14 16 24 21 30 34 35 37 37 40 37 29
10 16 19 24 27 30 32 29 28 26 21 18 20 17 18 16 14 17 18 17 20 22 25 29 31 32 33 32 34 37 40 36
8 11 17 21 24 28 33 29 28 26 21 20 21 19 18 17 16 15 15 18 19 19 22 27 31 33 32 32 34 34 35 38
5 10 15 20 23 27 31 31 29 25 21 19 20 20 19 19 18 18 18 18 18 20 18 25 26 33 35 32 35 34 36 34
4 8 13 17 20 23 28 28 26 25 21 21 17 18 19 18 17 17 15 15 15 16 20 22 23 25 29 37 40 38 37 38
6 7 10 16 17 21 28 23 23 22 21 20 17 15 16 18 15 14 15 14 14 14 17 20 22 21 28 28 34 36 39 42
15 13 11 15 15 19 23 19 19 17 21 21 19 17 15 13 14 14 13 12 12 15 16 19 20 20 23 29 31 32 29 32
18 20 20 22 22 21 23 19 19 19 17 19 17 15 14 14 14 13 12 10 10 12 16 17 16 16 19 22 27 27 25 26
17 22 22 22 22 24 24 24 22 19 17 19 18 14 10 9 8 9 10 11 10 8 9 12 12 12 14 16 21 23 23 23
18 21 21 20 22 21 21 23 21 19 17 17 15 13 12 10 10 12 11 10 10 9 9 10 9 15 21 21 22 23 23 25
16 17 19 20 20 21 19 20 20 17 16 15 13 12 10 10 10 10 11 12 12 14 15 16 19 22 23 24 25 27 29 30
14 17 20 19 18 18 19 18 17 17 15 14 12 10 8 7 9 10 11 12 12 12 13 14 17 21 22 23 24 26 27 30
16 15 16 19 18 19 18 17 15 15 13 10 9 11 5 4 5 6 8 9 8 9 10 11 12 14 18 21 23 22 20 22

GFSFLT1_850_spd_081.txt.gz
Wind_Speed
26 27 23 22 25 27 27 23 21 21 20 17 16 18 19 19 21 21 21 21 23 27 28 34 31 25 30 36 29 24 24 24
22 26 17 21 25 27 28 25 24 22 20 19 18 21 17 19 20 20 23 21 22 24 32 31 33 33 31 38 30 27 27 26
25 24 20 22 26 28 27 26 26 23 20 17 17 19 14 16 17 16 18 21 20 18 35 31 32 34 36 36 34 29 27 28
25 27 22 23 26 28 28 26 25 24 19 17 16 13 17 16 16 15 17 17 16 19 22 28 33 33 38 37 32 32 30 27
24 26 27 25 26 26 27 26 25 23 22 17 16 18 18 15 14 15 18 18 18 20 25 42 41 38 40 43 38 34 31 32
27 27 28 26 25 27 28 26 24 23 23 17 17 15 15 13 12 15 17 18 15 15 19 39 37 37 37 42 42 36 30 30
25 25 29 25 25 27 28 28 27 24 23 19 17 17 16 15 14 17 17 16 12 10 17 33 30 37 35 35 38 36 32 27
12 16 19 19 27 30 29 29 28 26 23 19 17 16 16 14 13 16 15 15 14 8 14 29 31 36 32 35 35 32 32 30
10 19 20 23 27 29 29 30 29 27 23 19 17 15 15 14 12 11 14 16 14 15 15 18 21 27 33 33 35 34 32 33
18 8 14 20 24 28 29 28 30 27 22 18 19 19 16 14 14 11 11 12 14 15 18 20 20 24 30 31 32 32 31 33
22 4 9 16 21 22 30 25 29 24 21 19 19 17 14 14 14 16 16 12 14 16 17 20 20 28 29 30 29 30 30 32
21 14 2 14 16 16 27 25 25 24 23 17 17 18 15 15 14 13 11 11 13 12 15 17 17 20 26 32 33 32 34 35
15 11 11 9 11 16 25 19 21 22 20 19 17 15 15 14 13 10 12 11 10 12 13 14 18 18 16 24 31 34 37 36
16 13 11 13 17 20 24 18 19 21 21 21 20 17 12 10 11 10 10 9 8 9 12 15 15 17 20 19 23 26 27 30
16 14 13 14 17 19 21 24 25 22 23 22 20 17 15 13 13 7 6 7 5 5 11 12 12 12 13 15 18 22 26 25
16 16 14 13 15 20 23 24 23 24 24 22 21 20 18 16 15 16 15 13 11 11 9 12 15 15 16 16 17 19 19 18
14 15 13 12 15 15 19 21 22 21 23 23 21 20 19 18 18 18 17 16 16 13 14 17 17 18 18 16 17 19 19 20
15 15 14 14 13 16 18 20 19 19 20 19 18 18 17 15 16 15 16 16 18 19 19 20 19 17 18 19 20 22 23 25
14 12 12 14 16 18 17 18 18 19 19 17 16 15 15 13 11 12 10 10 11 11 12 13 15 15 18 20 22 21 21 22

GFSFLT1_850_spd_084.txt.gz
Wind_Speed
28 33 36 38 30 32 37 35 33 27 25 24 18 16 18 20 19 19 19 23 21 22 24 25 25 24 22 19 24 29 29 29
30 29 32 33 27 33 35 36 35 27 31 24 21 19 19 18 20 20 21 21 20 21 23 25 24 28 25 19 30 31 31 31
23 21 23 26 24 32 34 35 31 31 31 22 20 16 13 16 17 19 20 21 21 21 22 25 25 30 27 23 27 34 26 30
27 25 23 27 23 34 35 34 30 32 24 21 21 19 17 15 15 14 17 18 22 21 24 23 27 30 31 28 38 36 34 29
29 26 29 29 30 29 33 32 31 31 26 24 24 20 22 19 16 15 16 17 17 17 21 21 25 25 30 32 40 36 33 31
22 26 27 30 32 31 33 34 31 32 28 26 24 18 15 12 11 15 16 17 18 17 16 21 25 26 27 31 42 42 39 33
19 24 26 29 33 33 35 35 30 28 30 25 18 12 16 14 17 19 20 20 18 17 16 20 25 32 30 27 41 40 39 34
25 19 30 29 38 37 36 33 30 29 27 25 19 19 19 14 17 18 18 17 18 15 14 13 16 35 35 29 43 40 39 34
27 31 21 16 37 36 36 32 30 30 26 26 20 19 17 17 16 14 16 13 15 12 10 10 22 24 25 30 32 44 38 31
27 28 21 7 32 34 32 31 31 28 28 24 21 19 14 15 14 13 12 13 13 10 8 12 16 19 27 30 28 40 36 31
22 25 28 7 20 25 26 28 33 27 24 22 19 21 17 17 16 13 11 9 10 12 13 15 16 19 24 31 35 35 33 29
18 20 21 17 5 17 23 19 28 30 21 23 22 18 16 14 14 14 14 10 9 9 12 14 17 17 20 24 26 29 31 32
15 15 17 13 12 8 11 15 23 31 16 21 19 18 17 14 13 12 13 12 10 9 9 11 16 18 22 26 27 29 27 28
14 14 16 13 11 8 14 16 21 25 18 16 17 15 16 12 12 12 13 10 9 8 10 7 10 14 15 15 20 29 26 29
14 14 15 13 11 12 11 17 21 25 23 24 22 20 18 17 17 14 13 10 9 9 12 12 15 13 15 14 12 14 20 21
17 15 14 13 12 12 15 18 24 21 23 22 22 21 20 19 18 17 16 15 13 13 14 14 15 15 14 13 13 14 13 10
16 15 12 14 13 12 12 14 17 22 22 21 20 19 17 16 17 17 16 15 14 14 14 14 15 16 14 14 14 16 15 17
19 16 14 13 13 11 12 14 16 20 23 21 20 20 20 21 21 19 19 18 15 13 13 14 13 13 14 14 15 15 17 18
16 15 17 15 13 12 11 12 15 20 22 21 19 19 18 17 18 19 18 18 19 17 15 14 12 12 15 16 17 18 20 21

GFSFLT1_850_spd_090.txt.gz
Wind_Speed
37 34 26 36 42 43 42 37 38 41 37 35 30 31 30 28 26 24 23 22 21 22 22 20 21 26 27 27 29 34 33 30
42 38 35 30 39 44 43 37 41 42 40 36 36 36 35 31 29 27 25 23 22 24 25 23 23 26 27 27 31 31 30 29
45 44 34 33 26 40 43 42 37 42 46 45 39 35 34 31 32 30 27 24 24 24 25 25 24 25 26 27 31 30 31 31
42 40 37 33 31 26 39 43 38 48 49 45 37 31 30 28 28 30 29 28 26 26 24 25 26 27 29 28 33 32 34 34
18 24 30 31 33 27 36 42 43 49 52 47 38 35 36 33 29 29 27 28 28 27 27 25 25 27 29 29 31 35 33 31
24 15 14 18 19 24 38 45 45 49 49 45 38 34 35 29 24 24 25 28 26 24 26 26 26 26 27 28 31 32 30 41
27 22 9 4 13 22 41 47 45 50 46 42 36 34 31 26 24 24 22 22 23 23 24 25 25 25 27 27 29 33 35 42
30 32 20 4 15 26 33 42 44 41 42 36 33 31 28 24 23 21 21 22 21 22 23 24 25 25 28 27 29 30 37 46
27 26 23 12 6 29 27 32 39 42 39 35 29 25 23 21 21 20 18 17 19 21 23 24 25 24 25 27 31 34 40 44
26 26 25 19 6 22 32 38 44 39 36 32 27 25 23 24 18 16 15 15 19 22 23 21 22 24 25 29 36 39 38 47
27 28 24 21 11 11 21 34 37 34 32 28 25 23 21 21 16 17 16 15 18 19 20 21 21 22 20 20 30 37 40 40
27 27 25 21 16 13 10 15 24 25 25 25 24 23 21 20 16 17 15 15 18 19 17 17 16 16 12 13 31 25 34 41
25 26 25 24 23 20 6 2 5 12 20 24 25 20 21 19 18 17 16 15 15 14 14 14 14 13 14 14 17 24 33 38
28 28 27 26 22 19 16 13 26 23 21 28 26 23 21 20 18 15 16 14 13 13 13 13 14 14 16 14 11 16 25 30
27 28 26 25 22 16 13 9 20 24 24 32 28 27 22 21 19 19 17 16 15 14 14 14 13 15 16 14 14 16 23 28
27 26 26 24 23 20 14 11 10 18 23 31 31 28 24 22 19 17 16 17 16 15 15 16 13 15 17 17 17 16 21 27
23 24 24 25 24 22 18 13 10 15 21 19 25 25 23 22 20 20 18 17 16 16 16 16 17 14 16 15 18 21 21 23
21 22 23 21 20 20 20 16 9 10 16 19 22 24 23 25 26 27 21 20 19 18 17 17 18 17 16 15 14 17 20 20
17 18 20 18 17 17 15 15 12 10 10 13 17 20 21 23 24 24 24 23 23 21 18 18 19 19 19 18 17 19 19 20

GFSFLT1_850_spd_093.txt.gz
Wind_Speed
38 36 35 34 33 28 30 38 43 41 38 37 33 31 34 33 32 29 25 25 23 22 21 20 23 26 27 27 27 28 31 28
32 37 39 38 35 32 28 32 42 45 44 42 38 36 38 35 34 30 28 27 25 24 23 22 23 28 28 27 27 27 29 31
34 33 32 37 37 33 30 28 35 46 46 45 42 40 41 37 36 33 31 28 26 25 25 25 25 25 27 28 28 29 31 35
36 34 23 22 29 32 31 28 33 40 47 49 45 42 34 33 34 35 33 30 28 26 23 25 28 28 28 26 28 30 35 38
34 34 27 17 16 22 24 28 28 42 50 48 48 47 39 43 47 39 34 32 30 27 23 24 27 29 28 26 26 29 34 35
32 31 30 19 12 14 19 27 29 43 44 47 49 49 42 41 40 39 36 33 30 29 26 26 28 28 27 27 26 31 34 36
27 27 27 19 13 13 17 25 32 39 50 51 51 50 42 38 39 37 36 33 30 29 27 27 30 28 28 26 28 30 32 36
27 28 29 25 18 8 16 25 31 40 48 50 48 47 41 33 34 35 34 31 30 28 27 26 26 25 27 27 26 27 29 33
29 27 27 26 21 9 14 24 28 36 41 40 42 38 35 31 31 32 30 25 21 20 22 24 23 26 25 26 27 30 30 33
28 27 26 26 18 10 8 22 23 28 30 33 36 34 31 30 29 27 23 18 16 15 16 18 22 23 24 24 24 28 31 34
30 28 29 26 18 10 2 16 22 28 21 21 30 26 26 24 25 24 20 17 16 14 17 20 23 25 24 23 26 28 35 37
29 29 28 26 20 11 8 3 12 24 19 25 26 23 25 24 24 20 18 16 13 14 16 17 21 20 21 25 26 28 31 37
24 26 25 26 25 19 13 15 13 11 17 21 21 24 21 22 20 17 17 14 12 13 14 15 15 16 16 17 19 17 28 33
27 28 27 27 26 24 20 7 9 7 7 13 17 23 24 24 21 20 19 15 13 11 12 11 13 14 15 17 13 14 25 25
27 29 27 26 25 24 22 13 2 6 12 16 21 30 29 26 24 22 19 18 15 13 12 12 15 15 17 15 14 10 12 24
24 28 28 27 25 23 22 19 7 3 9 16 19 33 31 28 24 20 19 16 14 13 12 13 13 14 15 14 14 13 15 21
23 24 26 27 25 23 21 20 17 7 9 19 20 21 28 28 24 23 20 18 17 15 14 14 16 16 14 16 15 15 15 19
21 23 24 24 23 21 21 20 17 13 12 8 15 19 23 27 27 24 22 18 17 15 14 14 15 15 12 13 15 18 19 21
20 20 21 22 22 21 17 17 18 17 17 17 14 7 16 22 23 24 22 20 17 15 14 14 14 14 13 12 13 13 16 20

GFSFLT1_850_spd_096.txt.gz
Wind_Speed
29 32 30 27 28 28 24 27 30 39 40 47 43 39 35 35 34 36 32 28 26 24 24 23 23 24 25 25 26 25 26 29
25 28 33 29 25 29 26 24 28 33 43 48 47 46 37 39 39 37 34 31 28 27 25 24 25 25 26 25 25 26 30 29
29 29 30 27 26 26 26 24 27 31 39 43 48 43 41 42 41 38 34 33 31 29 27 26 26 25 27 26 26 27 31 32
34 33 30 29 25 23 24 23 24 32 35 43 45 48 45 42 39 35 36 34 33 31 28 26 26 27 27 27 27 30 32 33
34 31 30 30 28 24 22 25 27 31 37 41 46 50 48 46 41 32 28 32 35 32 30 27 26 27 27 26 28 31 30 34
32 29 29 28 30 26 21 23 28 33 36 39 44 46 47 48 40 35 25 45 36 34 33 28 27 27 28 26 26 29 31 33
27 27 28 28 27 23 19 20 22 30 34 36 40 44 49 48 41 45 34 41 42 36 33 30 27 27 26 26 27 28 29 33
29 33 32 32 28 25 16 12 15 24 31 35 36 44 47 47 46 31 44 46 40 39 34 33 29 27 26 26 26 25 27 30
30 32 33 34 28 24 18 11 12 21 27 31 33 41 44 40 44 43 39 34 35 34 32 29 29 29 28 26 23 26 26 27
29 31 35 34 29 24 21 12 12 20 25 29 31 32 33 35 38 35 28 27 30 28 28 27 25 21 22 22 26 28 27 26
30 31 32 32 29 23 20 11 5 14 19 23 24 26 26 21 19 28 27 26 24 23 22 21 20 21 22 23 24 25 25 27
30 30 30 30 28 23 21 16 8 9 15 12 12 15 13 13 23 30 25 21 20 21 19 19 21 21 21 22 24 24 24 24
31 31 31 31 32 29 25 19 15 9 8 8 11 16 14 20 29 25 23 21 21 19 20 20 19 19 19 20 22 23 24 25
32 34 33 34 33 32 29 23 16 9 6 5 6 9 18 18 26 24 23 22 21 20 19 18 16 15 14 13 13 14 17 23
30 34 35 33 32 31 30 25 19 13 1 5 4 11 12 23 30 26 24 22 20 16 15 14 13 13 12 13 13 14 14 14
26 30 33 33 32 31 29 26 21 16 9 3 11 18 20 27 30 28 23 21 18 17 16 13 12 14 13 13 13 13 13 10
22 26 29 32 32 30 29 27 25 21 15 7 2 14 12 22 23 25 24 22 21 18 15 13 13 10 8 9 10 10 12 14
22 23 25 27 28 27 27 25 22 21 21 17 16 9 8 18 28 31 30 25 19 16 14 12 10 9 8 10 9 11 13 14
19 20 21 23 23 24 25 26 26 25 23 23 22 16 9 5 6 26 26 23 19 16 14 12 10 9 7 9 8 11 14 18

GFSFLT1_850_spd_102.txt.gz
Wind_Speed
7 10 12 14 16 19 20 24 27 27 27 25 26 28 37 35 39 43 36 38 41 39 35 35 31 30 31 29 30 27 26 25
9 11 13 15 17 20 21 23 26 28 26 21 26 30 34 40 38 38 42 41 41 39 36 36 33 32 31 29 28 27 26 26
12 16 18 19 19 20 21 22 24 25 24 23 24 29 30 33 34 37 48 44 42 39 38 37 35 33 31 29 29 28 28 26
12 16 18 21 23 24 23 24 23 26 26 25 27 27 30 30 32 39 48 46 44 43 37 36 36 33 31 27 27 28 29 28
12 15 17 20 21 23 26 28 28 29 27 23 24 28 34 35 33 41 44 46 48 42 37 38 38 33 29 27 26 26 29 31
14 17 18 19 22 25 28 29 28 28 28 27 26 30 34 34 30 34 40 44 49 46 41 32 41 27 26 25 27 29 30 32
16 17 19 20 22 26 28 28 28 26 25 25 28 30 34 34 32 34 35 42 49 43 40 41 39 38 39 33 29 31 32 32
18 21 24 24 25 29 32 30 29 26 22 22 26 31 36 37 32 32 34 40 44 45 42 44 43 44 36 44 36 34 32 34
19 21 23 24 26 29 33 31 30 26 21 20 23 23 31 35 33 32 33 36 39 40 40 35 47 44 36 45 36 37 30 33
20 22 23 25 27 30 33 30 28 25 20 16 16 19 26 31 32 31 32 27 26 31 40 43 29 31 50 36 38 36 32 34
20 22 24 24 26 28 29 27 28 25 19 7 9 16 24 29 30 30 30 28 31 30 34 34 32 42 40 40 36 34 30 31
18 21 23 24 24 27 30 29 29 24 17 5 4 10 16 21 24 28 33 34 33 37 31 20 19 36 36 36 29 30 27 30
16 20 23 25 26 29 29 30 29 24 20 12 2 6 10 14 19 19 25 31 31 35 31 18 25 25 28 28 31 30 27 28
16 19 22 23 26 30 28 28 29 25 22 14 8 1 8 12 14 18 24 26 31 32 32 38 46 33 28 30 28 28 28 26
15 17 19 22 24 29 30 28 26 23 21 19 13 9 2 4 10 10 16 24 27 28 32 32 30 29 27 26 25 26 27 26
14 16 19 21 24 28 30 28 29 28 22 20 18 10 7 5 7 12 19 21 24 29 31 32 30 26 25 26 27 27 22 23
14 15 17 19 24 26 28 28 29 28 26 23 19 13 8 6 3 13 21 27 30 30 31 27 26 24 26 26 24 24 22 22
13 15 16 17 23 24 25 27 28 28 28 26 24 20 20 17 13 7 9 23 32 34 35 29 26 26 25 22 22 21 20 21
13 13 15 18 19 21 22 24 26 29 29 29 27 26 23 20 17 13 5 7 15 18 25 25 27 24 21 19 19 18 17 16

GFSFLT1_850_spd_105.txt.gz
Wind_Speed
2 3 4 6 9 13 14 14 14 15 17 20 23 24 30 33 31 32 32 34 34 36 39 38 35 31 30 32 33 28 29 24
2 2 5 7 10 13 15 17 17 17 18 18 20 22 27 32 35 35 35 33 33 35 35 35 37 35 31 32 30 29 30 26
1 4 8 10 12 13 15 16 18 18 19 20 21 23 27 29 34 34 37 36 35 36 37 38 38 35 32 32 34 29 27 27
3 8 10 12 14 15 16 17 19 20 21 22 23 24 29 35 27 34 33 36 43 45 38 44 40 37 37 36 37 32 30 27
6 10 13 15 16 17 18 19 20 19 20 22 22 25 28 29 35 31 34 39 39 41 44 46 40 37 37 36 36 32 26 31
8 11 14 15 17 19 21 21 21 20 21 24 28 27 27 28 36 33 34 36 40 41 45 45 43 37 37 31 25 29 30 28
9 11 14 15 17 19 21 22 23 22 24 25 28 29 30 29 32 33 34 37 39 43 41 45 43 41 36 33 29 42 34 29
10 13 15 17 19 21 22 23 26 26 27 26 25 27 29 33 34 38 34 35 38 41 45 47 47 40 39 35 29 42 38 31
11 15 17 20 22 24 25 27 29 29 29 26 23 24 29 34 36 39 31 33 34 34 41 45 46 44 50 44 39 44 38 34
14 15 18 20 23 24 26 29 30 29 30 28 22 17 20 27 26 34 33 30 30 28 37 38 39 36 33 32 36 38 38 34
15 17 20 21 22 24 26 26 29 29 31 26 21 11 12 15 25 30 30 36 29 28 30 36 41 38 33 34 30 29 35 32
15 17 19 20 22 23 26 28 30 30 28 29 20 11 11 11 15 22 25 27 28 26 31 36 33 42 36 32 26 27 29 30
14 16 18 21 23 24 26 31 31 30 26 26 22 16 9 12 16 18 21 30 30 28 28 28 30 36 33 34 25 38 32 35
15 16 18 20 22 24 25 31 31 29 27 22 25 19 13 6 13 18 18 23 27 30 27 28 30 29 26 22 24 48 44 30
14 16 18 19 21 23 26 29 31 29 25 23 19 22 19 12 7 5 21 21 23 25 26 28 30 27 26 27 26 29 29 27
14 16 17 19 21 23 24 26 30 29 27 26 24 20 17 11 7 14 6 19 18 18 23 33 25 27 32 29 23 27 25 24
13 15 16 18 21 22 22 24 26 28 29 28 25 23 20 17 16 8 10 6 18 25 21 28 31 33 31 31 29 24 24 24
13 15 16 17 19 20 21 22 23 27 28 28 28 27 25 23 22 16 7 9 6 11 20 25 25 26 24 23 24 24 24 23
14 14 15 17 17 18 19 19 24 27 28 27 28 27 27 26 24 22 20 16 11 3 6 14 16 26 27 25 24 25 23 22

GFSFLT1_850_spd_108.txt.gz
Wind_Speed
16 9 6 2 2 3 5 7 10 13 14 15 17 21 28 31 29 29 31 34 38 33 36 38 40 40 40 36 35 33 32 27
14 9 6 2 4 5 7 10 12 14 15 15 16 19 19 22 28 33 31 36 38 37 37 39 42 42 41 42 37 36 33 29
13 8 4 3 6 9 11 12 14 15 16 18 24 28 30 29 28 28 34 40 38 40 38 40 45 47 46 45 41 37 36 29
12 7 4 5 7 11 13 15 17 17 17 20 21 24 30 29 34 38 34 39 46 43 41 41 46 35 25 40 38 36 36 32
11 6 5 8 10 11 13 16 18 18 20 22 24 28 30 30 27 28 33 34 42 44 48 48 47 40 42 30 33 36 33 34
9 6 8 9 11 13 16 18 18 20 21 24 26 29 32 35 33 40 34 33 45 45 48 46 47 44 51 42 36 35 37 30
8 9 11 13 14 15 19 21 22 21 22 24 27 30 32 36 36 37 45 40 36 49 48 45 43 39 43 45 46 43 48 30
9 12 14 15 17 19 23 25 26 24 25 25 26 29 30 32 35 38 39 47 40 34 44 42 41 40 41 47 46 48 33 32
11 13 15 16 19 21 26 27 28 27 27 27 25 26 27 27 30 34 38 48 40 29 39 37 34 37 40 47 42 43 36 30
13 13 15 17 19 21 25 28 29 28 27 28 26 24 26 24 24 26 34 37 43 29 35 31 29 35 41 44 42 41 38 42
14 14 15 16 18 19 22 27 31 30 28 27 28 25 25 25 23 19 21 25 27 32 32 29 28 34 40 43 36 41 38 34
14 15 16 18 20 21 25 27 32 33 30 28 27 27 23 25 23 20 19 22 27 32 34 31 30 33 34 41 41 40 40 33
17 17 18 20 21 24 26 29 30 33 32 30 29 26 24 23 22 21 16 16 24 28 34 32 32 34 35 37 39 36 35 32
16 18 19 20 22 22 26 29 30 32 30 30 29 26 23 24 19 16 17 15 26 29 28 29 28 29 36 39 42 39 36 30
16 17 18 19 21 21 25 27 28 30 30 30 30 29 26 24 21 16 16 14 14 21 17 23 21 28 31 36 41 40 33 33
16 16 18 18 19 23 23 25 27 27 29 30 31 29 27 25 24 18 11 14 14 10 20 20 23 23 24 28 34 33 34 28
13 14 16 17 20 22 22 24 25 26 28 30 30 30 30 29 27 26 20 13 14 10 3 15 13 23 23 23 25 25 25 23
12 13 16 18 20 19 21 22 23 26 28 30 31 32 31 31 30 27 26 23 15 12 8 5 9 15 25 25 25 28 26 23
12 13 16 21 19 18 20 21 24 26 28 30 32 33 33 32 32 32 30 28 26 22 17 14 5 2 20 23 25 29 31 28

GFSFLT1_850_spd_111.txt.gz
Wind_Speed
25 23 17 11 6 3 7 11 14 16 16 18 19 20 25 31 28 25 25 30 34 34 36 39 43 44 39 41 42 40 37 38
27 20 15 9 5 5 7 10 11 12 12 13 16 21 24 26 28 36 34 28 30 38 40 41 40 52 50 44 45 43 39 38
24 17 11 6 3 5 8 10 12 13 14 15 16 19 22 25 30 31 32 34 35 34 43 45 43 40 49 51 49 43 40 40
30 22 15 9 4 8 12 15 16 16 17 19 20 21 22 25 25 28 36 38 37 35 37 46 48 46 45 46 46 40 39 29
31 25 18 11 8 10 15 16 16 17 19 20 21 24 27 28 30 30 30 36 46 42 37 38 49 48 44 44 46 40 35 41
29 23 14 8 7 12 16 16 16 17 18 19 21 24 26 29 32 36 34 34 40 43 38 32 45 51 48 50 47 47 39 46
26 20 11 12 9 12 19 21 21 21 20 20 21 24 25 29 31 34 37 35 35 42 44 32 38 48 48 51 49 45 48 53
24 21 16 15 15 19 23 24 23 24 23 22 23 23 25 28 28 30 35 36 35 35 41 38 34 41 44 44 47 46 48 46
24 20 17 17 17 20 23 26 26 27 25 23 23 23 25 27 26 27 30 31 33 35 34 41 37 34 37 37 46 47 49 47
23 20 18 17 19 21 24 27 27 28 27 26 24 23 24 26 26 25 27 27 31 32 29 35 39 28 41 43 44 44 42 47
20 21 17 17 19 21 23 26 27 29 28 27 27 26 24 25 27 26 27 27 28 26 23 26 34 32 37 39 42 43 43 45
19 15 14 16 18 20 25 27 28 30 30 28 28 28 25 23 24 23 24 25 25 24 28 26 31 34 35 40 43 42 38 42
14 14 15 18 21 23 25 27 27 27 28 28 27 27 26 25 24 23 22 23 21 18 19 24 29 30 34 39 38 41 40 42
18 19 21 22 22 23 23 24 26 25 26 27 27 27 27 27 26 25 23 21 20 19 19 22 22 24 34 36 35 38 38 41
22 22 22 20 20 22 22 24 24 26 26 26 26 28 28 27 26 25 23 21 18 14 17 23 26 21 22 28 33 34 32 35
20 20 19 19 20 21 22 23 24 25 26 26 27 28 28 28 28 26 24 21 18 16 14 9 4 12 26 35 25 28 30 33
12 13 18 20 21 21 21 22 23 23 25 27 28 29 30 32 32 31 28 27 24 19 16 13 10 4 23 27 24 34 33 30
14 16 22 22 21 21 21 21 22 24 25 27 28 28 32 34 34 35 36 35 31 29 28 22 17 13 5 18 19 27 25 26
15 16 20 24 22 23 23 24 25 25 26 26 28 30 31 32 35 36 37 37 39 38 37 34 29 27 18 13 13 19 23 25

GFSFLT1_850_spd_114.txt.gz
Wind_Speed
36 33 29 24 20 16 12 9 12 14 15 17 20 20 20 23 24 26 27 26 27 30 31 34 37 39 39 42 42 40 39 36
32 31 26 21 15 10 5 5 8 11 13 14 17 21 21 22 25 28 29 30 29 27 32 34 35 38 41 44 40 42 45 43
27 24 20 16 14 10 6 2 4 9 13 15 16 18 21 22 23 25 29 33 34 34 34 34 36 37 41 44 43 45 42 42
21 21 20 14 12 10 8 7 7 8 11 16 17 18 19 21 22 24 25 29 35 38 40 38 36 34 38 42 45 42 46 43
28 23 20 17 15 12 10 7 8 10 12 15 18 20 23 24 25 26 26 25 29 35 42 44 41 36 37 40 43 42 41 45
24 25 20 17 15 15 13 11 11 13 13 15 19 20 22 24 26 28 27 27 26 27 33 41 46 43 37 38 44 45 42 44
25 23 18 17 15 14 16 16 17 16 17 17 18 21 22 23 25 27 28 28 27 25 24 29 36 42 39 40 44 46 46 45
28 24 22 20 20 20 20 19 16 19 20 20 19 20 22 24 25 28 30 30 29 25 24 24 28 34 39 37 40 46 47 46
27 25 22 22 23 21 20 19 19 20 20 21 21 21 22 23 23 25 27 30 30 28 29 30 30 28 36 40 32 41 47 42
25 23 22 23 22 20 20 20 20 21 22 22 23 23 24 24 23 23 24 27 31 32 31 33 32 29 29 38 34 36 40 41
20 20 22 21 17 17 20 22 23 22 23 23 24 23 23 24 25 24 24 24 27 29 30 32 32 29 28 32 36 35 42 45
18 17 16 17 18 20 22 21 22 23 24 23 23 24 23 22 23 25 25 24 26 26 27 29 28 28 28 30 34 35 33 36
18 19 20 20 20 20 21 20 21 22 23 22 22 22 23 24 23 24 25 24 24 24 25 26 26 23 26 30 29 29 35 35
16 18 20 19 18 18 18 19 20 20 19 22 22 23 24 24 24 23 23 24 23 21 22 22 23 22 18 22 24 30 32 38
11 13 13 13 15 16 17 18 20 19 20 23 25 26 26 26 26 25 24 23 21 19 18 18 17 19 19 19 23 25 33 37
12 14 14 14 17 17 19 20 19 20 22 25 27 27 27 27 27 28 26 24 24 22 18 16 16 17 16 17 20 26 32 46
13 15 15 17 19 20 20 20 21 22 25 27 27 27 28 29 31 31 29 28 29 28 26 25 22 19 20 15 14 20 20 23
11 16 19 19 21 22 22 21 21 23 25 27 28 28 29 31 32 33 36 36 32 32 33 34 33 27 25 14 8 10 15 15
9 12 13 17 17 19 21 23 26 27 28 27 27 27 28 29 31 33 34 37 38 39 39 39 41 37 27 21 16 8 2 12

GFSFLT1_850_spd_117.txt.gz
Wind_Speed
11 20 26 22 23 24 24 22 20 17 16 16 15 15 17 19 21 22 22 23 24 26 25 27 30 31 31 35 46 45 37 43
22 23 19 15 13 12 13 12 10 7 9 11 12 15 14 14 18 21 24 28 30 31 31 30 30 33 30 29 33 35 40 43
19 19 18 11 10 9 8 7 4 1 4 7 8 12 16 16 15 17 20 23 26 30 34 35 33 31 31 30 31 32 37 39
18 16 15 10 7 8 8 7 5 3 4 7 9 10 13 17 17 17 18 21 24 28 30 34 38 37 35 32 29 30 35 36
16 17 16 15 15 11 9 9 8 7 6 8 11 13 16 16 18 20 21 21 21 22 26 29 33 37 38 37 34 34 33 35
18 18 17 16 15 13 12 12 10 8 8 10 13 14 15 18 20 21 21 22 20 20 21 23 27 30 34 37 37 36 37 40
18 18 16 17 14 16 14 14 14 12 12 12 12 15 17 18 20 22 23 23 23 19 20 20 20 23 27 31 34 38 38 40
23 25 26 20 16 20 19 20 18 18 17 16 15 16 17 18 19 22 23 24 24 23 22 22 22 22 25 27 30 37 35 38
21 22 24 22 20 18 19 20 19 18 18 18 17 17 16 17 18 20 22 23 24 24 25 25 25 25 27 29 29 34 37 36
18 19 22 23 24 25 22 20 19 20 20 19 18 18 18 18 17 17 19 21 22 23 25 27 28 27 27 27 27 27 31 36
12 14 15 17 20 19 19 19 21 19 19 18 18 17 17 18 18 18 19 21 22 22 24 26 27 27 26 25 26 27 27 34
9 11 13 15 15 16 18 18 20 20 20 20 20 20 20 20 20 20 20 20 21 23 23 25 27 27 26 26 25 27 25 33
10 12 11 11 14 17 17 17 18 19 19 20 21 20 20 21 22 21 21 20 20 21 22 23 23 26 26 25 24 24 24 27
10 10 9 10 15 16 17 18 18 18 20 21 22 23 23 24 24 24 22 21 21 20 19 20 21 23 26 27 24 21 22 28
10 11 14 17 17 16 16 15 16 17 19 22 23 25 26 28 27 27 26 26 23 21 22 22 21 20 21 22 22 20 18 23
9 10 12 13 11 13 14 15 17 19 21 23 23 24 25 27 28 30 29 27 27 27 27 27 26 24 26 23 20 16 19 21
6 7 8 11 13 15 16 16 17 19 20 22 22 24 25 24 27 30 31 32 33 32 33 35 36 32 27 25 18 17 13 12
6 5 7 9 12 14 17 18 18 21 22 22 22 23 23 26 27 28 31 33 34 35 36 38 40 41 35 28 24 21 20 16
5 6 7 9 10 11 13 16 19 22 23 22 22 22 23 23 24 26 28 30 33 34 35 38 40 41 40 37 31 29 26 27

GFSFLT1_850_spd_120.txt.gz
Wind_Speed
9 4 6 10 12 13 15 15 14 13 14 15 15 15 15 17 19 21 21 21 22 23 22 22 23 26 31 29 33 36 37 31
6 9 8 6 5 5 5 7 7 7 10 11 12 12 13 14 15 17 19 20 22 24 27 27 26 25 24 23 26 29 32 40
13 13 10 9 7 5 2 1 2 2 3 5 7 9 10 9 9 12 15 17 20 22 24 27 29 30 28 26 25 22 24 22
15 16 17 14 13 12 11 8 4 3 1 2 4 6 7 8 10 11 11 14 17 20 22 24 26 29 29 29 28 27 27 26
19 18 19 18 18 15 14 14 15 16 10 8 4 4 6 8 11 15 15 13 15 16 19 21 23 25 26 27 27 30 29 30
21 19 20 21 21 17 16 16 9 19 20 16 13 11 10 11 12 13 16 15 15 15 15 17 18 20 21 24 26 27 30 33
22 24 23 23 22 19 18 17 14 12 18 19 18 17 13 14 15 15 16 17 15 15 15 14 15 16 17 19 21 24 27 32
14 18 21 24 25 23 21 21 22 19 18 17 17 16 15 16 17 18 19 19 17 16 16 15 15 15 16 17 20 23 23 28
14 14 14 14 17 19 13 12 15 19 20 19 18 16 15 16 17 17 19 20 19 18 18 17 17 16 17 18 21 24 25 26
10 11 12 13 13 14 15 16 16 17 16 17 18 18 17 18 17 18 18 19 19 19 19 18 17 16 16 19 21 20 23 25
9 11 12 13 13 12 13 13 16 16 17 18 19 19 18 17 16 16 17 19 19 18 18 18 18 18 18 18 21 20 22 23
8 11 11 11 12 13 13 14 14 14 16 16 17 20 19 20 20 20 20 19 19 19 20 20 19 20 18 18 19 19 21 20
8 11 11 11 13 12 13 14 15 15 16 16 18 17 19 21 22 22 21 20 21 21 21 21 19 20 20 22 22 21 18 17
8 8 11 11 12 11 12 14 13 14 15 16 19 21 21 23 22 22 22 23 22 22 22 23 23 24 24 23 21 21 16 15
7 7 9 10 11 12 13 13 15 15 17 19 20 22 24 25 24 24 25 25 25 25 26 29 29 27 27 27 24 20 16 13
6 6 8 9 11 12 12 12 12 13 15 18 22 22 22 22 22 24 26 27 30 31 32 34 36 35 34 32 28 24 21 17
5 6 7 10 12 12 13 12 13 14 16 19 19 18 19 20 21 24 25 27 29 33 35 37 39 40 36 34 31 28 25 23
4 5 6 7 9 9 12 13 13 15 18 18 17 16 18 20 21 22 24 28 29 32 35 36 37 37 37 36 35 34 32 31
6 5 4 5 5 8 10 13 13 17 16 16 17 18 18 19 20 22 25 27 29 33 34 34 35 36 34 34 34 36 37 38

GFSFLT1_850_spd_123.txt.gz
Wind_Speed
15 11 9 7 5 3 2 1 6 9 10 11 10 10 12 13 14 16 18 19 21 22 23 24 24 24 28 30 27 26 33 39
13 14 11 9 7 6 5 5 3 3 8 10 9 8 8 10 12 13 15 18 19 21 23 24 26 26 25 24 24 25 26 32
13 13 12 13 12 12 11 11 9 9 7 3 6 8 8 10 9 10 12 13 16 18 20 21 23 25 25 26 27 27 25 21
11 13 16 14 13 13 13 13 13 13 13 12 7 3 5 9 12 11 12 12 14 15 18 20 20 22 23 23 26 29 29 22
11 12 14 17 18 17 14 13 13 12 12 13 15 18 12 16 15 13 12 13 14 14 16 18 20 20 20 21 22 26 28 30
13 14 15 15 17 20 19 19 19 16 15 16 15 21 21 19 17 16 14 13 14 15 16 16 17 17 18 19 19 20 24 29
8 9 9 10 8 8 16 20 18 18 16 13 17 17 22 21 18 18 18 18 17 16 14 15 16 15 15 16 17 19 20 22
6 8 9 10 12 12 9 10 17 20 19 16 8 11 17 21 22 22 21 20 19 18 17 15 15 16 16 17 17 18 19 23
7 11 13 15 16 16 16 12 8 9 10 13 16 16 16 18 20 20 20 21 21 20 19 19 17 17 17 18 18 19 20 23
5 8 10 12 13 15 15 15 15 15 12 12 12 13 14 14 14 16 17 18 19 20 20 18 19 19 18 17 18 18 23 23
5 8 10 11 13 12 12 14 14 13 14 14 13 13 14 14 14 13 14 16 17 17 18 19 19 18 18 18 16 17 20 23
5 8 10 10 10 11 12 13 13 13 12 12 12 13 14 14 15 15 15 15 15 16 17 17 18 18 17 14 16 17 17 17
3 7 8 9 10 10 11 12 12 13 12 13 15 16 18 19 20 19 18 17 16 16 17 18 19 20 20 17 15 14 14 12
3 4 6 8 9 9 10 10 11 12 13 15 16 19 21 23 23 23 22 21 20 21 24 27 29 26 23 19 17 17 14 13
2 4 6 6 8 9 10 10 10 12 13 15 17 19 20 21 21 21 22 23 24 26 29 31 31 31 28 25 23 21 19 18
5 4 5 6 8 10 10 10 11 12 13 15 18 18 17 19 20 21 21 20 24 25 26 27 30 32 32 32 30 29 28 25
7 6 5 6 7 9 11 11 11 12 14 15 15 15 15 18 18 20 20 21 23 25 27 27 29 31 30 30 32 34 35 35
10 7 6 6 5 7 11 12 12 13 13 14 15 15 17 18 18 18 19 21 23 25 27 27 29 29 29 29 30 32 34 36
11 9 7 7 5 6 7 9 10 11 12 14 15 15 16 16 16 18 20 21 24 25 25 28 29 31 30 31 30 32 33 35

GFSFLT1_850_spd_126.txt.gz
Wind_Speed
13 14 13 13 11 9 10 11 12 10 9 10 7 5 7 8 10 13 13 14 16 17 17 20 22 21 22 25 30 31 36 39
12 13 12 12 12 10 10 10 9 11 10 7 10 9 5 5 6 9 11 14 16 15 15 17 19 20 20 22 22 23 28 34
10 12 13 14 13 13 12 11 9 8 6 6 5 7 10 8 8 8 9 11 13 15 17 19 20 22 24 24 23 21 21 22
10 12 14 14 16 18 17 16 13 10 8 8 7 7 7 8 10 12 13 13 13 14 17 19 20 21 22 23 25 26 20 21
7 9 11 12 12 12 13 14 14 14 15 14 11 8 8 12 11 15 14 13 15 17 18 20 21 22 21 22 22 23 25 27
5 8 9 11 11 10 8 10 11 12 13 16 17 14 14 12 13 17 20 17 14 16 16 17 20 20 22 21 21 21 21 22
3 5 7 9 11 12 12 11 12 11 11 13 15 15 17 18 18 18 22 23 19 16 16 16 17 19 20 21 21 20 21 22
2 6 7 9 11 12 12 13 13 14 14 13 13 12 12 14 17 23 22 24 20 18 17 17 17 19 20 21 22 21 20 22
1 4 6 9 11 12 12 12 12 13 13 14 14 15 15 14 13 12 13 18 19 20 18 16 16 16 18 19 19 18 20 22
1 3 5 7 8 10 12 12 12 13 13 12 13 13 13 13 12 12 11 12 15 15 14 14 14 14 15 16 16 17 20 23
2 2 4 5 7 9 9 10 11 11 11 12 13 13 13 13 13 11 10 11 11 12 11 13 14 13 12 12 11 12 16 18
3 1 2 4 5 7 8 9 10 11 11 12 12 13 14 14 14 14 14 12 12 13 14 15 16 15 13 11 11 11 12 13
5 2 1 3 4 5 7 8 10 11 11 12 13 13 14 13 14 16 16 15 16 18 19 21 23 22 19 16 15 14 13 15
6 3 1 2 3 5 6 8 9 10 10 11 12 13 14 13 14 14 14 15 17 19 22 24 25 26 25 23 21 19 18 19
8 5 3 3 4 5 6 7 8 8 8 10 11 12 13 14 13 14 14 15 17 18 20 22 23 24 25 25 26 25 23 22
11 8 5 5 5 6 6 7 7 7 7 8 10 11 11 12 13 14 14 15 16 16 18 21 21 24 25 23 22 22 25 28
12 10 9 7 6 7 7 7 7 7 8 8 9 9 11 12 13 14 13 14 16 17 18 19 23 24 23 21 22 23 25 27
15 13 11 9 8 9 8 7 7 7 7 8 9 9 10 12 12 12 13 15 15 17 19 20 23 24 23 21 23 23 25 26
17 15 13 11 9 8 8 7 7 7 8 10 10 10 10 11 11 13 14 15 18 19 20 21 22 25 24 23 22 22 23 25

GFSFLT1_850_spd_129.txt.gz
Wind_Speed
7 9 10 10 12 13 13 14 16 15 11 11 10 10 10 10 11 9 9 13 15 15 9 12 15 13 12 13 18 21 25 32
6 8 10 10 12 13 14 14 14 15 14 9 8 10 11 9 10 13 11 12 13 12 15 16 19 17 17 17 17 19 20 21
5 7 9 11 12 13 14 15 13 12 13 14 12 8 8 9 10 8 11 13 17 17 16 16 18 19 20 20 21 22 20 15
4 6 7 9 10 11 12 13 13 13 11 11 11 11 6 9 12 11 11 12 15 17 17 16 17 19 20 20 21 22 26 23
4 4 6 10 12 11 11 11 12 13 12 11 12 10 9 10 11 12 12 14 13 15 18 19 17 18 20 23 22 22 22 28
2 4 7 9 10 11 12 12 12 13 13 13 11 10 11 10 11 11 12 13 16 18 17 19 20 18 19 23 23 21 21 23
2 3 5 7 9 11 11 12 12 14 14 13 14 14 15 13 15 13 12 12 14 16 19 20 21 20 19 20 21 21 20 21
2 2 3 5 8 9 10 11 11 12 12 12 11 12 11 11 14 14 16 15 17 16 18 20 20 21 19 20 20 22 19 19
5 2 2 4 6 7 9 9 10 11 11 11 11 10 11 11 12 12 12 13 14 17 17 18 21 19 19 18 18 16 17 19
6 2 1 2 4 6 8 8 9 10 10 10 10 11 11 11 12 10 11 13 14 15 15 15 16 15 15 16 15 14 15 17
7 4 1 1 3 5 6 7 8 8 8 9 10 11 11 11 11 12 13 13 14 14 15 15 15 15 14 13 12 13 14 15
10 6 3 1 2 4 5 5 6 7 7 8 9 10 11 12 13 13 14 14 15 15 15 17 18 17 15 14 12 12 13 14
12 8 5 2 2 2 3 4 5 6 7 8 10 11 11 12 13 14 14 14 15 16 18 18 18 18 16 18 17 16 17 18
15 11 7 4 2 2 2 2 4 5 5 6 7 9 9 10 11 12 13 14 16 15 17 18 19 18 15 18 18 19 20 21
17 13 9 6 4 3 2 2 4 3 4 5 6 8 9 10 10 11 12 13 13 14 15 17 18 18 17 18 17 17 17 18
19 15 11 8 7 6 4 3 4 3 4 5 7 8 8 9 10 11 11 12 12 13 13 16 17 19 18 17 16 17 17 18
20 17 14 11 9 7 6 5 5 4 5 6 6 7 7 8 9 9 10 11 12 13 14 16 19 19 15 15 16 16 18 21
21 18 16 13 12 10 7 6 6 5 6 6 5 5 6 7 8 8 10 11 12 13 15 15 18 19 16 14 17 16 18 21
20 18 16 15 14 11 9 8 7 6 6 5 6 6 7 8 8 9 10 11 13 14 16 16 18 21 19 16 16 17 18 21